KC5DAQ-24 Weather Reports


Display with metric or nautical units.
time (UTC)temp
F
wind
direction
speed
MPH
gust
MPH
rain 1hr
in
rain 24hr
in
rain mn
in
humidity
%
barometer
mb
20260507125756 65 0 1.0 5.0 0.00 0.00 0.00 85 1014.5
20260507125657 65 0 1.0 5.0 0.00 0.00 0.00 85 1014.5
20260507125557 65 0 2.0 5.0 0.00 0.00 0.00 85 1014.6
20260507125457 65 0 2.0 5.0 0.00 0.00 0.00 85 1014.5
20260507125356 65 0 2.0 4.0 0.00 0.00 0.00 85 1014.5
20260507125256 0 0.0 0.0 0.00 0.00 0.00 1014.5
20260507125157 0 0.0 0.0 0.00 0.00 0.00 1014.4
20260507125054 0 0.0 0.0 0.00 0.00 0.00 1014.3
20260507124954 66 0 1.0 4.0 0.00 0.00 0.00 85 1014.3
20260507124855 66 0 1.0 4.0 0.00 0.00 0.00 85 1014.2
20260507124754 66 0 1.0 5.0 0.00 0.00 0.00 85 1014.2
20260507124655 66 0 1.0 5.0 0.00 0.00 0.00 85 1014.2
20260507124553 66 0 1.0 5.0 0.00 0.00 0.00 85 1014.2
20260507124454 66 0 1.0 5.0 0.00 0.00 0.00 85 1014.1
20260507124353 66 0 1.0 5.0 0.00 0.00 0.00 85 1014.0
20260507124254 66 0 1.0 5.0 0.00 0.00 0.00 85 1014.0
20260507124153 66 0 1.0 5.0 0.00 0.00 0.00 85 1013.9
20260507124053 66 0 1.0 5.0 0.00 0.00 0.00 85 1013.9
20260507123951 66 0 1.0 5.0 0.00 0.00 0.00 85 1014.0
20260507123852 66 0 2.0 5.0 0.00 0.00 0.00 86 1013.9
20260507123754 66 0 1.0 1.0 0.00 0.00 0.00 86 1013.9
20260507123653 66 0 1.0 1.0 0.00 0.00 0.00 86 1013.9
20260507123554 66 0 1.0 1.0 0.00 0.00 0.00 86 1013.9
20260507123453 66 0 1.0 2.0 0.00 0.00 0.00 86 1013.9
20260507123353 66 0 1.0 2.0 0.00 0.00 0.00 86 1013.9
20260507123253 66 0 1.0 5.0 0.00 0.00 0.00 86 1013.8
20260507123152 66 0 1.0 5.0 0.00 0.00 0.00 86 1013.8
20260507123051 66 0 1.0 5.0 0.00 0.00 0.00 86 1013.8
20260507122951 66 0 1.0 5.0 0.00 0.00 0.00 86 1013.7
20260507122851 66 0 1.0 5.0 0.00 0.00 0.00 86 1013.8
20260507122751 66 0 1.0 5.0 0.00 0.00 0.00 86 1013.6
20260507122651 66 0 1.0 5.0 0.00 0.00 0.00 86 1013.5
20260507122551 66 0 1.0 5.0 0.00 0.00 0.00 86 1013.5
20260507122450 66 0 1.0 5.0 0.00 0.00 0.00 86 1013.4
20260507122351 66 0 2.0 5.0 0.00 0.00 0.00 86 1013.4
20260507122252 66 0 1.0 3.0 0.00 0.00 0.00 86 1013.4
20260507122151 66 0 1.0 3.0 0.00 0.00 0.00 86 1013.4
20260507122053 66 0 1.0 3.0 0.00 0.00 0.00 86 1013.4
20260507121950 66 0 1.0 4.0 0.00 0.00 0.00 86 1013.4
20260507121851 67 0 2.0 4.0 0.00 0.00 0.00 86 1013.4
20260507121751 67 0 2.0 11.0 0.00 0.00 0.00 86 1013.5
20260507121651 67 0 2.0 11.0 0.00 0.00 0.00 86 1013.5
20260507121549 67 0 2.0 11.0 0.00 0.00 0.00 86 1013.5
20260507121449 67 0 2.0 11.0 0.00 0.00 0.00 86 1013.5
20260507121349 67 0 2.0 11.0 0.00 0.00 0.00 86 1013.5
20260507121249 67 0 2.0 11.0 0.00 0.00 0.00 86 1013.5
20260507121148 67 0 2.0 11.0 0.00 0.00 0.00 86 1013.4
20260507121049 67 0 2.0 11.0 0.00 0.00 0.00 86 1013.4
20260507120948 67 0 2.0 11.0 0.00 0.00 0.00 86 1013.4
20260507120848 67 0 3.0 11.0 0.00 0.00 0.00 86 1013.4
20260507120749 67 0 2.0 3.0 0.00 0.00 0.00 86 1013.4
20260507120649 0 0 1.0 1.0 0.00 0.00 0.00 1013.3
20260507120549 0 0 1.0 1.0 0.00 0.00 0.00 1013.3
20260507120449 0 0 1.0 1.0 0.00 0.00 0.00 1013.4
20260507120349 0 0 1.0 1.0 0.00 0.00 0.00 1013.4
20260507120248 0 0.0 0.0 0.00 0.00 0.00 1013.3
20260507120148 0 0.0 0.0 0.00 0.00 0.00 1013.2
20260507120046 0 0.0 0.0 0.00 0.00 0.00 1013.2
20260507115946 67 0 1.0 2.0 0.00 0.00 0.00 86 1013.3
20260507115845 67 0 1.0 2.0 0.00 0.00 0.00 86 1013.2
20260507115746 67 0 1.0 4.0 0.00 0.00 0.00 86 1013.2
20260507115646 67 0 1.0 4.0 0.00 0.00 0.00 86 1013.2
20260507115544 67 0 1.0 4.0 0.00 0.00 0.00 86 1013.3
20260507115443 67 0 1.0 4.0 0.00 0.00 0.00 86 1013.3
20260507115344 67 0 1.0 4.0 0.00 0.00 0.00 86 1013.3
20260507115244 67 0 1.0 4.0 0.00 0.00 0.00 86 1013.3
20260507115144 67 0 1.0 4.0 0.00 0.00 0.00 86 1013.2
20260507115043 67 0 1.0 4.0 0.00 0.00 0.00 86 1013.0
20260507114945 67 0 1.0 4.0 0.00 0.00 0.00 86 1013.0
20260507114842 67 0 2.0 4.0 0.00 0.00 0.00 86 1013.1
20260507114742 67 0 1.0 2.0 0.00 0.00 0.00 86 1013.0
20260507114642 67 0 0.0 1.0 0.00 0.00 0.00 87 1013.0
20260507114542 0 0 0.0 0.0 0.00 0.00 0.00 1013.0
20260507114444 0 0.0 0.0 0.00 0.00 0.00 1013.1
20260507114343 0 0.0 0.0 0.00 0.00 0.00 1012.9
20260507114243 0 0.0 0.0 0.00 0.00 0.00 1012.9
20260507114144 0 0.0 0.0 0.00 0.00 0.00 1012.8
20260507114042 0 0.0 0.0 0.00 0.00 0.00 1012.8
20260507113941 0 0.0 0.0 0.00 0.00 0.00 1012.7
20260507113842 0 0.0 0.0 0.00 0.00 0.00 1012.7
20260507113741 0 0.0 0.0 0.00 0.00 0.00 1012.7
20260507113641 0 0.0 0.0 0.00 0.00 0.00 1012.6
20260507113539 0 0.0 0.0 0.00 0.00 0.00 1012.5
20260507113441 0 0.0 0.0 0.00 0.00 0.00 1012.5
20260507113339 0 0.0 0.0 0.00 0.00 0.00 1012.5
20260507113240 0 0.0 0.0 0.00 0.00 0.00 1012.5
20260507113139 0 0.0 0.0 0.00 0.00 0.00 1012.5
20260507113038 0 0.0 0.0 0.00 0.00 0.00 1012.5
20260507112939 67 0 3.0 4.0 0.00 0.00 0.00 86 1012.4
20260507112838 67 0 3.0 4.0 0.00 0.00 0.00 86 1012.3
20260507112739 67 0 3.0 4.0 0.00 0.00 0.00 86 1012.3
20260507112638 67 0 3.0 4.0 0.00 0.00 0.00 86 1012.3
20260507112535 67 0 3.0 4.0 0.00 0.00 0.00 86 1012.4
20260507112435 67 0 3.0 4.0 0.00 0.00 0.00 86 1012.4
20260507112334 67 0 3.0 4.0 0.00 0.00 0.00 86 1012.4
20260507112235 67 0 3.0 4.0 0.00 0.00 0.00 86 1012.4
20260507112138 67 0 3.0 4.0 0.00 0.00 0.00 86 1012.4
20260507112034 67 0 3.0 4.0 0.00 0.00 0.00 86 1012.4
20260507111934 67 0 1.0 3.0 0.00 0.00 0.00 86 1012.3
20260507111835 67 0 1.0 3.0 0.00 0.00 0.00 86 1012.4
20260507111735 67 0 1.0 3.0 0.00 0.00 0.00 86 1012.4
20260507111635 67 0 1.0 3.0 0.00 0.00 0.00 86 1012.4
20260507111534 67 0 1.0 2.0 0.00 0.00 0.00 86 1012.4
20260507111434 67 0 1.0 2.0 0.00 0.00 0.00 87 1012.5
20260507111334 67 0 0.0 3.0 0.00 0.00 0.00 87 1012.4
20260507111234 67 0 0.0 3.0 0.00 0.00 0.00 87 1012.4
20260507111136 67 0 1.0 3.0 0.00 0.00 0.00 86 1012.4
20260507111034 67 0 1.0 3.0 0.00 0.00 0.00 87 1012.4
20260507110934 67 0 1.0 3.0 0.00 0.00 0.00 87 1012.3
20260507110835 67 0 1.0 3.0 0.00 0.00 0.00 87 1012.4
20260507110736 67 0 1.0 3.0 0.00 0.00 0.00 87 1012.4
20260507110636 67 0 1.0 3.0 0.00 0.00 0.00 87 1012.3
20260507110535 67 0 2.0 3.0 0.00 0.00 0.00 87 1012.3
20260507110434 67 0 2.0 3.0 0.00 0.00 0.00 87 1012.3
20260507110335 67 0 1.0 3.0 0.00 0.00 0.00 87 1012.3
20260507110234 67 0 1.0 3.0 0.00 0.00 0.00 87 1012.4
20260507110132 67 0 1.0 3.0 0.00 0.00 0.00 87 1012.4
20260507110033 67 0 1.0 3.0 0.00 0.00 0.00 86 1012.3
20260507105932 0 0.0 0.0 0.00 0.00 0.00 1012.3
20260507105831 0 0.0 0.0 0.00 0.00 0.00 1012.2
20260507105732 0 0.0 0.0 0.00 0.00 0.00 1012.2
20260507105632 0 0.0 0.0 0.00 0.00 0.00 1012.3
20260507105531 0 0.0 0.0 0.00 0.00 0.00 1012.2
20260507105432 0 0.0 0.0 0.00 0.00 0.00 1012.2
20260507105332 0 0.0 0.0 0.00 0.00 0.00 1012.2
20260507105232 0 0.0 0.0 0.00 0.00 0.00 1012.2
20260507105133 0 0.0 0.0 0.00 0.00 0.00 1012.2
20260507105032 0 0.0 0.0 0.00 0.00 0.00 1012.2
20260507104933 0 0.0 0.0 0.00 0.00 0.00 1012.2
20260507104832 0 0.0 0.0 0.00 0.00 0.00 1012.2
20260507104731 0 0.0 0.0 0.00 0.00 0.00 1012.3
20260507104631 0 0.0 0.0 0.00 0.00 0.00 1012.3
20260507104530 0 0.0 0.0 0.00 0.00 0.00 1012.3
20260507104431 0 0.0 0.0 0.00 0.00 0.00 1012.2
20260507104331 0 0.0 0.0 0.00 0.00 0.00 1012.1
20260507104228 0 0.0 0.0 0.00 0.00 0.00 1012.2
20260507104129 0 0.0 0.0 0.00 0.00 0.00 1012.1
20260507104028 0 0.0 0.0 0.00 0.00 0.00 1012.2
20260507103929 0 0.0 0.0 0.00 0.00 0.00 1012.2
20260507103829 0 0.0 0.0 0.00 0.00 0.00 1012.2
20260507103727 0 0.0 0.0 0.00 0.00 0.00 1012.2
20260507103628 0 0.0 0.0 0.00 0.00 0.00 1012.1
20260507103527 0 0.0 0.0 0.00 0.00 0.00 1012.1
20260507103428 0 0.0 0.0 0.00 0.00 0.00 1012.2
20260507103327 0 0.0 0.0 0.00 0.00 0.00 1012.3
20260507103225 0 0.0 0.0 0.00 0.00 0.00 1012.3
20260507103125 0 0.0 0.0 0.00 0.00 0.00 1012.3
20260507103025 0 0.0 0.0 0.00 0.00 0.00 1012.2
20260507102925 0 0.0 0.0 0.00 0.00 0.00 1012.2
20260507102825 0 0.0 0.0 0.00 0.00 0.00 1012.1
20260507102723 0 0.0 0.0 0.00 0.00 0.00 1012.2
20260507102624 67 0 0.0 1.0 0.00 0.00 0.00 86 1012.1
20260507102524 67 0 0.0 1.0 0.00 0.00 0.00 86 1012.2
20260507102423 67 0 0.0 1.0 0.00 0.00 0.00 86 1012.1
20260507102323 67 0 0.0 1.0 0.00 0.00 0.00 86 1012.1
20260507102221 67 0 0.0 1.0 0.00 0.00 0.00 86 1012.1
20260507102122 67 0 0.0 5.0 0.00 0.00 0.00 86 1012.1
20260507102021 67 0 0.0 5.0 0.00 0.00 0.00 86 1012.1
20260507101921 67 0 0.0 5.0 0.00 0.00 0.00 86 1012.1
20260507101822 67 0 0.0 5.0 0.00 0.00 0.00 86 1012.0
20260507101721 67 0 0.0 5.0 0.00 0.00 0.00 86 1012.0
20260507101621 67 0 2.0 5.0 0.00 0.00 0.00 86 1012.0
20260507101521 67 0 2.0 5.0 0.00 0.00 0.00 86 1012.0
20260507101422 67 0 2.0 5.0 0.00 0.00 0.00 86 1012.1
20260507101321 67 0 2.0 5.0 0.00 0.00 0.00 86 1012.1
20260507101223 67 0 2.0 5.0 0.00 0.00 0.00 86 1012.0
20260507101120 67 0 1.0 2.0 0.00 0.00 0.00 86 1012.0
20260507101023 67 0 0.0 0.0 0.00 0.00 0.00 86 1012.0
20260507100922 67 0 0.0 1.0 0.00 0.00 0.00 86 1012.0
20260507100822 67 0 0.0 3.0 0.00 0.00 0.00 86 1012.0
20260507100719 67 0 0.0 3.0 0.00 0.00 0.00 86 1012.1
20260507100620 67 0 0.0 3.0 0.00 0.00 0.00 86 1012.0
20260507100519 67 0 0.0 3.0 0.00 0.00 0.00 86 1011.9
20260507100403 67 0 0.0 3.0 0.00 0.00 0.00 86 1011.9
20260507100302 67 0 0.0 3.0 0.00 0.00 0.00 86 1011.9
20260507100203 67 0 0.0 3.0 0.00 0.00 0.00 86 1011.8
20260507100005 67 0 1.0 3.0 0.00 0.00 0.00 86 1011.9
20260507095902 67 0 3.0 3.0 0.00 0.00 0.00 84 1011.9
20260507095803 67 0 0.0 0.0 0.00 0.00 0.00 84 1012.0
20260507095703 67 0 0.0 0.0 0.00 0.00 0.00 84 1011.9
20260507095603 67 0 0.0 0.0 0.00 0.00 0.00 84 1011.8
20260507095503 67 0 0.0 0.0 0.00 0.00 0.00 84 1011.8
20260507095404 0 0.0 0.0 0.00 0.00 0.00 1011.7
20260507095305 0 0.0 0.0 0.00 0.00 0.00 1011.6
20260507095203 0 0.0 0.0 0.00 0.00 0.00 1011.7
20260507095103 0 0.0 0.0 0.00 0.00 0.00 1011.6
20260507095003 0 0.0 0.0 0.00 0.00 0.00 1011.7
20260507094903 0 0.0 0.0 0.00 0.00 0.00 1011.6
20260507094803 0 0.0 0.0 0.00 0.00 0.00 1011.6
20260507094703 0 0.0 0.0 0.00 0.00 0.00 1011.7
20260507094603 0 0.0 0.0 0.00 0.00 0.00 1011.7
20260507094503 0 0.0 0.0 0.00 0.00 0.00 1011.7
20260507094403 0 0.0 0.0 0.00 0.00 0.00 1011.7
20260507094303 0 0.0 0.0 0.00 0.00 0.00 1011.6
20260507094203 0 0.0 0.0 0.00 0.00 0.00 1011.5
20260507094102 0 0.0 0.0 0.00 0.00 0.00 1011.5
20260507094004 0 0.0 0.0 0.00 0.00 0.00 1011.5
20260507093903 0 0.0 0.0 0.00 0.00 0.00 1011.4
20260507093803 0 0.0 0.0 0.00 0.00 0.00 1011.4
20260507093703 0 0.0 0.0 0.00 0.00 0.00 1011.3
20260507093603 0 0.0 0.0 0.00 0.00 0.00 1011.3
20260507093504 0 0.0 0.0 0.00 0.00 0.00 1011.2
20260507093402 0 0.0 0.0 0.00 0.00 0.00 1011.2
20260507093303 0 0.0 0.0 0.00 0.00 0.00 1011.1
20260507093203 0 0.0 0.0 0.00 0.00 0.00 1011.1
20260507093103 0 0.0 0.0 0.00 0.00 0.00 1011.2
20260507093003 0 0.0 0.0 0.00 0.00 0.00 1011.3
20260507092904 0 0.0 0.0 0.00 0.00 0.00 1011.4
20260507092803 0 0.0 0.0 0.00 0.00 0.00 1011.4
20260507092703 0 0.0 0.0 0.00 0.00 0.00 1011.5
20260507092604 0 0.0 0.0 0.00 0.00 0.00 1011.6
20260507092504 0 0.0 0.0 0.00 0.00 0.00 1011.5
20260507092404 0 0.0 0.0 0.00 0.00 0.00 1011.5
20260507092306 0 0.0 0.0 0.00 0.00 0.00 1011.4
20260507092203 0 0.0 0.0 0.00 0.00 0.00 1011.5
20260507092103 68 0 2.0 3.0 0.00 0.00 0.00 84 1011.5
20260507092003 68 0 2.0 5.0 0.00 0.00 0.00 84 1011.4
20260507091903 68 0 2.0 5.0 0.00 0.00 0.00 84 1011.4
20260507091803 68 0 2.0 6.0 0.00 0.00 0.00 84 1011.3
20260507091703 68 0 2.0 6.0 0.00 0.00 0.00 84 1011.2
20260507091602 68 0 2.0 6.0 0.00 0.00 0.00 84 1011.3
20260507091503 68 0 2.0 6.0 0.00 0.00 0.00 84 1011.3
20260507091403 68 0 2.0 6.0 0.00 0.00 0.00 84 1011.3
20260507091303 68 0 2.0 6.0 0.00 0.00 0.00 84 1011.3
20260507091203 68 0 2.0 6.0 0.00 0.00 0.00 84 1011.3
20260507091103 68 0 2.0 6.0 0.00 0.00 0.00 84 1011.4
20260507091004 68 0 3.0 6.0 0.00 0.00 0.00 84 1011.4
20260507090903 68 0 2.0 6.0 0.00 0.00 0.00 84 1011.5
20260507090802 68 0 2.0 5.0 0.00 0.00 0.00 84 1011.5
20260507090704 68 0 2.0 5.0 0.00 0.00 0.00 84 1011.5
20260507090601 68 0 2.0 5.0 0.00 0.00 0.00 84 1011.5
20260507090504 68 0 2.0 5.0 0.00 0.00 0.00 84 1011.5
20260507090403 68 0 3.0 5.0 0.00 0.00 0.00 84 1011.5
20260507090232 68 0 3.0 5.0 0.00 0.00 0.00 84 1011.5
20260507090132 68 0 3.0 5.0 0.00 0.00 0.00 84 1011.5
20260507090033 68 0 3.0 5.0 0.00 0.00 0.00 84 1011.4
20260507085932 68 0 3.0 5.0 0.00 0.00 0.00 84 1011.4
20260507085832 68 0 3.0 5.0 0.00 0.00 0.00 84 1011.4
20260507085732 68 0 3.0 5.0 0.00 0.00 0.00 84 1011.6
20260507085607 68 0 3.0 5.0 0.00 0.00 0.00 84 1011.6
20260507085503 68 0 2.0 5.0 0.00 0.00 0.00 84 1011.5
20260507085404 68 0 2.0 5.0 0.00 0.00 0.00 84 1011.5
20260507085306 68 0 2.0 5.0 0.00 0.00 0.00 84 1011.5
20260507085204 68 0 2.0 2.0 0.00 0.00 0.00 84 1011.4
20260507085102 0 0.0 0.0 0.00 0.00 0.00 1011.4
20260507085004 0 0.0 0.0 0.00 0.00 0.00 1011.5
20260507084902 0 0.0 0.0 0.00 0.00 0.00 1011.5
20260507084802 0 0.0 0.0 0.00 0.00 0.00 1011.5
20260507084631 0 0.0 0.0 0.00 0.00 0.00 1011.6
20260507084532 0 0.0 0.0 0.00 0.00 0.00 1011.6
20260507084432 0 0.0 0.0 0.00 0.00 0.00 1011.6
20260507084332 0 0.0 0.0 0.00 0.00 0.00 1011.6
20260507084232 69 0 1.0 2.0 0.00 0.00 0.00 84 1011.7
20260507084132 69 0 1.0 3.0 0.00 0.00 0.00 84 1011.7
20260507084032 69 0 1.0 3.0 0.00 0.00 0.00 84 1011.6
20260507083932 69 0 1.0 3.0 0.00 0.00 0.00 84 1011.7
20260507083832 69 0 1.0 3.0 0.00 0.00 0.00 84 1011.7
20260507083732 69 0 1.0 3.0 0.00 0.00 0.00 84 1011.6
20260507083633 69 0 1.0 3.0 0.00 0.00 0.00 84 1011.6
20260507083532 69 0 1.0 6.0 0.00 0.00 0.00 84 1011.6
20260507083432 69 0 1.0 6.0 0.00 0.00 0.00 84 1011.6
20260507083332 69 0 1.0 6.0 0.00 0.00 0.00 84 1011.5
20260507083204 69 0 1.0 6.0 0.00 0.00 0.00 83 1011.5
20260507083102 69 0 1.0 6.0 0.00 0.00 0.00 83 1011.5
20260507083005 69 0 2.0 6.0 0.00 0.00 0.00 83 1011.4
20260507082903 69 0 2.0 6.0 0.00 0.00 0.00 83 1011.4
20260507082804 69 0 2.0 6.0 0.00 0.00 0.00 83 1011.4
20260507082702 69 0 2.0 6.0 0.00 0.00 0.00 83 1011.5
20260507082604 69 0 0.0 3.0 0.00 0.00 0.00 83 1011.4
20260507082504 69 0 2.0 4.0 0.00 0.00 0.00 83 1011.4
20260507082404 69 0 2.0 4.0 0.00 0.00 0.00 83 1011.4
20260507082306 69 0 2.0 4.0 0.00 0.00 0.00 83 1011.3
20260507082203 69 0 2.0 4.0 0.00 0.00 0.00 83 1011.3
20260507082104 69 0 2.0 4.0 0.00 0.00 0.00 83 1011.3
20260507082003 69 0 2.0 4.0 0.00 0.00 0.00 83 1011.4
20260507081903 69 0 2.0 4.0 0.00 0.00 0.00 83 1011.4
20260507081804 69 0 2.0 4.0 0.00 0.00 0.00 83 1011.4
20260507081703 69 0 2.0 4.0 0.00 0.00 0.00 83 1011.5
20260507081602 69 0 2.0 4.0 0.00 0.00 0.00 83 1011.4
20260507081502 69 0 1.0 2.0 0.00 0.00 0.00 83 1011.4
20260507081402 69 0 1.0 2.0 0.00 0.00 0.00 83 1011.4
20260507081303 69 0 0.0 1.0 0.00 0.00 0.00 83 1011.4
20260507081203 0 0.0 0.0 0.00 0.00 0.00 1011.4
20260507081104 0 0.0 0.0 0.00 0.00 0.00 1011.5
20260507081003 0 0.0 0.0 0.00 0.00 0.00 1011.4
20260507080904 0 0.0 0.0 0.00 0.00 0.00 1011.5
20260507080803 0 0.0 0.0 0.00 0.00 0.00 1011.5
20260507080703 0 0.0 0.0 0.00 0.00 0.00 1011.5
20260507080554 0 0.0 0.0 0.00 0.00 0.00 1011.5
20260507080452 0 0.0 0.0 0.00 0.00 0.00 1011.4
20260507080353 0 0.0 0.0 0.00 0.00 0.00 1011.4
20260507080252 0 0.0 0.0 0.00 0.00 0.00 1011.4
20260507080152 0 0.0 0.0 0.00 0.00 0.00 1011.4
20260507080052 0 0.0 0.0 0.00 0.00 0.00 1011.5
20260507075951 0 0.0 0.0 0.00 0.00 0.00 1011.5
20260507075849 0 0.0 0.0 0.00 0.00 0.00 1011.5
20260507075751 0 0.0 0.0 0.00 0.00 0.00 1011.6
20260507075650 0 0.0 0.0 0.00 0.00 0.00 1011.6
20260507075550 0 0.0 0.0 0.00 0.00 0.00 1011.6
20260507075448 0 0.0 0.0 0.00 0.00 0.00 1011.7
20260507075348 0 0.0 0.0 0.00 0.00 0.00 1011.7
20260507075248 0 0.0 0.0 0.00 0.00 0.00 1011.7
20260507075148 0 0.0 0.0 0.00 0.00 0.00 1011.8
20260507075047 0 0.0 0.0 0.00 0.00 0.00 1011.8
20260507074946 0 0.0 0.0 0.00 0.00 0.00 1011.7
20260507074846 69 0 1.0 2.0 0.00 0.00 0.00 82 1011.7
20260507074746 69 0 1.0 3.0 0.00 0.00 0.00 82 1011.7
20260507074646 69 0 1.0 3.0 0.00 0.00 0.00 82 1011.7
20260507074546 69 0 1.0 3.0 0.00 0.00 0.00 82 1011.7
20260507074445 69 0 1.0 3.0 0.00 0.00 0.00 82 1011.6
20260507074344 69 0 1.0 5.0 0.00 0.00 0.00 82 1011.6
20260507074246 69 0 1.0 5.0 0.00 0.00 0.00 82 1011.6
20260507074144 69 0 1.0 5.0 0.00 0.00 0.00 82 1011.5
20260507074045 69 0 1.0 5.0 0.00 0.00 0.00 82 1011.5
20260507073944 69 0 1.0 5.0 0.00 0.00 0.00 82 1011.5
20260507073844 69 0 1.0 5.0 0.00 0.00 0.00 82 1011.6
20260507073745 69 0 0.0 5.0 0.00 0.00 0.00 82 1011.6
20260507073644 69 0 2.0 5.0 0.00 0.00 0.00 82 1011.6
20260507073545 69 0 2.0 5.0 0.00 0.00 0.00 82 1011.7
20260507073443 69 0 2.0 5.0 0.00 0.00 0.00 82 1011.5
20260507073343 69 0 0.0 1.0 0.00 0.00 0.00 82 1011.5
20260507073244 0 0.0 0.0 0.00 0.00 0.00 1011.4
20260507073145 0 0.0 0.0 0.00 0.00 0.00 1011.4
20260507073042 0 0.0 0.0 0.00 0.00 0.00 1011.4
20260507072942 0 0.0 0.0 0.00 0.00 0.00 1011.4
20260507072842 0 0.0 0.0 0.00 0.00 0.00 1011.5
20260507072741 0 0.0 0.0 0.00 0.00 0.00 1011.5
20260507072642 0 0.0 0.0 0.00 0.00 0.00 1011.6
20260507072540 0 0.0 0.0 0.00 0.00 0.00 1011.6
20260507072442 0 0.0 0.0 0.00 0.00 0.00 1011.7
20260507072340 0 0.0 0.0 0.00 0.00 0.00 1011.7
20260507072242 0 0.0 0.0 0.00 0.00 0.00 1011.8
20260507072140 0 0.0 0.0 0.00 0.00 0.00 1011.8
20260507072039 0 0.0 0.0 0.00 0.00 0.00 1011.9
20260507071939 0 0.0 0.0 0.00 0.00 0.00 1012.0
20260507071838 0 0.0 0.0 0.00 0.00 0.00 1012.0
20260507071739 0 0.0 0.0 0.00 0.00 0.00 1012.0
20260507071639 0 0.0 0.0 0.00 0.00 0.00 1012.0
20260507071538 0 0.0 0.0 0.00 0.00 0.00 1011.9
20260507071436 0 0.0 0.0 0.00 0.00 0.00 1012.0
20260507071335 0 0.0 0.0 0.00 0.00 0.00 1011.9
20260507071236 0 0.0 0.0 0.00 0.00 0.00 1011.9
20260507071136 0 0.0 0.0 0.00 0.00 0.00 1011.9
20260507071034 0 0.0 0.0 0.00 0.00 0.00 1011.9
20260507070934 0 0.0 0.0 0.00 0.00 0.00 1012.0
20260507070834 0 0.0 0.0 0.00 0.00 0.00 1011.9
20260507070734 0 0.0 0.0 0.00 0.00 0.00 1011.9
20260507070633 0 0.0 0.0 0.00 0.00 0.00 1011.8
20260507070532 0 0.0 0.0 0.00 0.00 0.00 1011.8
20260507070432 0 0.0 0.0 0.00 0.00 0.00 1011.8
20260507070332 0 0.0 0.0 0.00 0.00 0.00 1011.8
20260507070204 0 0.0 0.0 0.00 0.00 0.00 1011.7
20260507070009 0 0.0 0.0 0.00 0.00 0.00 1011.9
20260507065903 70 0 1.0 4.0 0.00 0.00 0.00 82 1011.9
20260507065803 70 0 1.0 4.0 0.00 0.00 0.00 82 1012.0
20260507065703 70 0 1.0 4.0 0.00 0.00 0.00 82 1012.0
20260507065604 70 0 1.0 4.0 0.00 0.00 0.00 82 1012.0
20260507065503 70 0 1.0 4.0 0.00 0.00 0.00 82 1012.0
20260507065404 70 0 1.0 4.0 0.00 0.00 0.00 82 1012.0
20260507065306 70 0 1.0 4.0 0.00 0.00 0.00 82 1011.8
20260507065203 70 0 1.0 4.0 0.00 0.00 0.00 82 1011.8
20260507065102 70 0 1.0 5.0 0.00 0.00 0.00 82 1011.8
20260507065004 70 0 1.0 5.0 0.00 0.00 0.00 82 1011.9
20260507064902 70 0 2.0 5.0 0.00 0.00 0.00 82 1011.8
20260507064802 70 0 2.0 5.0 0.00 0.00 0.00 82 1011.8
20260507064702 70 0 2.0 5.0 0.00 0.00 0.00 82 1011.7
20260507064602 70 0 1.0 5.0 0.00 0.00 0.00 82 1011.7
20260507064503 70 0 1.0 5.0 0.00 0.00 0.00 81 1011.7
20260507064403 70 0 2.0 5.0 0.00 0.00 0.00 81 1011.8
20260507064303 70 0 1.0 5.0 0.00 0.00 0.00 81 1011.8
20260507064202 70 0 1.0 5.0 0.00 0.00 0.00 81 1011.8
20260507064103 70 0 2.0 5.0 0.00 0.00 0.00 81 1011.8
20260507064004 70 0 2.0 5.0 0.00 0.00 0.00 81 1011.8
20260507063903 70 0 2.0 5.0 0.00 0.00 0.00 81 1011.8
20260507063804 70 0 2.0 5.0 0.00 0.00 0.00 81 1011.9
20260507063705 70 0 2.0 5.0 0.00 0.00 0.00 81 1011.9
20260507063602 70 0 2.0 5.0 0.00 0.00 0.00 81 1012.0
20260507063503 70 0 2.0 5.0 0.00 0.00 0.00 82 1011.9
20260507063403 70 0 1.0 5.0 0.00 0.00 0.00 82 1012.0
20260507063303 70 0 1.0 5.0 0.00 0.00 0.00 81 1011.9
20260507063203 70 0 2.0 5.0 0.00 0.00 0.00 82 1011.9
20260507063103 70 0 1.0 3.0 0.00 0.00 0.00 82 1011.8
20260507063004 70 0 0.0 3.0 0.00 0.00 0.00 81 1011.8
20260507062904 71 0 2.0 3.0 0.00 0.00 0.00 81 1011.7
20260507062803 71 0 2.0 3.0 0.00 0.00 0.00 81 1011.6
20260507062703 71 0 2.0 3.0 0.00 0.00 0.00 81 1011.7
20260507062604 71 0 2.0 3.0 0.00 0.00 0.00 81 1011.7
20260507062504 71 0 2.0 3.0 0.00 0.00 0.00 81 1011.7
20260507062403 71 0 2.0 3.0 0.00 0.00 0.00 81 1011.7
20260507062306 71 0 2.0 3.0 0.00 0.00 0.00 81 1011.7
20260507062203 71 0 2.0 3.0 0.00 0.00 0.00 81 1011.7
20260507062103 0 0 2.0 2.0 0.00 0.00 0.00 1011.7
20260507061933 0 0 2.0 2.0 0.00 0.00 0.00 1011.8
20260507061833 0 0 2.0 2.0 0.00 0.00 0.00 1011.7
20260507061731 0 0 2.0 2.0 0.00 0.00 0.00 1011.7
20260507061631 0 0.0 0.0 0.00 0.00 0.00 1011.7
20260507061532 0 0.0 0.0 0.00 0.00 0.00 1011.7
20260507061432 0 0.0 0.0 0.00 0.00 0.00 1011.6
20260507061332 0 0.0 0.0 0.00 0.00 0.00 1011.8
20260507061232 0 0.0 0.0 0.00 0.00 0.00 1011.7
20260507061133 0 0.0 0.0 0.00 0.00 0.00 1011.8
20260507061032 0 0.0 0.0 0.00 0.00 0.00 1011.7
20260507060932 0 0.0 0.0 0.00 0.00 0.00 1011.6
20260507060832 0 0.0 0.0 0.00 0.00 0.00 1011.6
20260507060732 0 0.0 0.0 0.00 0.00 0.00 1011.5
20260507060632 0 0.0 0.0 0.00 0.00 0.00 1011.5
20260507060532 0 0.0 0.0 0.00 0.00 0.00 1011.5
20260507060432 0 0.0 0.0 0.00 0.00 0.00 1011.4
20260507060333 0 0.0 0.0 0.00 0.00 0.00 1011.4
20260507060232 0 0.0 0.0 0.00 0.00 0.00 1011.4
20260507060133 0 0.0 0.0 0.00 0.00 0.00 1011.5
20260507060020 0 0.0 0.0 0.00 0.00 0.00 1011.5
20260507055919 0 0.0 0.0 0.00 0.00 0.00 1011.5
20260507055819 71 0 1.0 6.0 0.00 0.00 0.00 81 1011.6
20260507055719 71 0 1.0 6.0 0.00 0.00 0.00 81 1011.6
20260507055618 71 0 1.0 6.0 0.00 0.00 0.00 81 1011.6
20260507055519 71 0 1.0 6.0 0.00 0.00 0.00 81 1011.6
20260507055416 71 0 1.0 6.0 0.00 0.00 0.00 81 1011.6
20260507055317 71 0 1.0 6.0 0.00 0.00 0.00 81 1011.5
20260507055217 71 0 1.0 6.0 0.00 0.00 0.00 81 1011.5
20260507055117 71 0 1.0 6.0 0.00 0.00 0.00 81 1011.4
20260507055016 71 0 1.0 6.0 0.00 0.00 0.00 81 1011.3
20260507054915 71 0 1.0 6.0 0.00 0.00 0.00 81 1011.4
20260507054816 71 0 1.0 6.0 0.00 0.00 0.00 81 1011.3
20260507054716 71 0 0.0 6.0 0.00 0.00 0.00 81 1011.3
20260507054615 71 0 1.0 6.0 0.00 0.00 0.00 81 1011.3
20260507054515 71 0 3.0 6.0 0.00 0.00 0.00 81 1011.3
20260507054416 71 0 2.0 2.0 0.00 0.00 0.00 81 1011.2
20260507054317 72 0 3.0 2.0 0.00 0.00 0.00 81 1011.2
20260507054216 72 0 3.0 9.0 0.00 0.00 0.00 81 1011.2
20260507054116 72 0 3.0 9.0 0.00 0.00 0.00 81 1011.2
20260507054016 72 0 3.0 9.0 0.00 0.00 0.00 81 1011.2
20260507053915 72 0 3.0 9.0 0.00 0.00 0.00 81 1011.2
20260507053814 72 0 3.0 9.0 0.00 0.00 0.00 81 1011.2
20260507053715 72 0 3.0 9.0 0.00 0.00 0.00 81 1011.3
20260507053615 72 0 3.0 9.0 0.00 0.00 0.00 81 1011.3
20260507053514 72 0 3.0 9.0 0.00 0.00 0.00 81 1011.3
20260507053413 72 0 3.0 9.0 0.00 0.00 0.00 81 1011.2
20260507053314 72 0 3.0 9.0 0.00 0.00 0.00 81 1011.2
20260507053214 72 0 2.0 3.0 0.00 0.00 0.00 80 1011.2
20260507053114 72 0 3.0 3.0 0.00 0.00 0.00 80 1011.1
20260507053015 72 0 1.0 2.0 0.00 0.00 0.00 80 1011.2
20260507052914 72 0 1.0 2.0 0.00 0.00 0.00 80 1011.1
20260507052814 72 0 1.0 3.0 0.00 0.00 0.00 80 1011.1
20260507052714 72 0 1.0 9.0 0.00 0.00 0.00 80 1011.0
20260507052615 72 0 2.0 9.0 0.00 0.00 0.00 80 1011.1
20260507052514 72 0 2.0 9.0 0.00 0.00 0.00 80 1011.1
20260507052413 72 0 2.0 9.0 0.00 0.00 0.00 80 1011.2
20260507052312 72 0 2.0 9.0 0.00 0.00 0.00 80 1011.2
20260507052212 72 0 2.0 9.0 0.00 0.00 0.00 80 1011.2
20260507052113 72 0 2.0 9.0 0.00 0.00 0.00 80 1011.3
20260507052013 72 0 2.0 9.0 0.00 0.00 0.00 80 1011.3
20260507051911 72 0 2.0 9.0 0.00 0.00 0.00 80 1011.3
20260507051812 72 0 2.0 9.0 0.00 0.00 0.00 80 1011.4
20260507051711 73 0 1.0 2.0 0.00 0.00 0.00 80 1011.4
20260507051611 73 0 0.0 1.0 0.00 0.00 0.00 80 1011.4
20260507051514 73 0 1.0 1.0 0.00 0.00 0.00 80 1011.4
20260507051413 73 0 1.0 1.0 0.00 0.00 0.00 80 1011.3
20260507051313 73 0 1.0 1.0 0.00 0.00 0.00 80 1011.4
20260507051204 73 0 1.0 1.0 0.00 0.00 0.00 80 1011.4
20260507051103 0 0.0 0.0 0.00 0.00 0.00 1011.4
20260507051004 0 0.0 0.0 0.00 0.00 0.00 1011.4
20260507050903 0 0.0 0.0 0.00 0.00 0.00 1011.4
20260507050803 0 0.0 0.0 0.00 0.00 0.00 1011.5
20260507050703 0 0.0 0.0 0.00 0.00 0.00 1011.5
20260507050603 0 0.0 0.0 0.00 0.00 0.00 1011.4
20260507050503 0 0.0 0.0 0.00 0.00 0.00 1011.4
20260507050403 0 0.0 0.0 0.00 0.00 0.00 1011.5
20260507050303 0 0.0 0.0 0.00 0.00 0.00 1011.5
20260507050203 0 0.0 0.0 0.00 0.00 0.00 1011.4
20260507050103 0 0.0 0.0 0.00 0.00 0.00 1011.4
20260507050005 0 0.0 0.0 0.00 0.00 0.00 1011.4
20260507045903 0 0.0 0.0 0.00 0.00 0.00 1011.4
20260507045802 0 0.0 0.0 0.00 0.00 0.00 1011.4
20260507045703 0 0.0 0.0 0.00 0.00 0.00 1011.3
20260507045602 0 0.0 0.0 0.00 0.00 0.00 1011.3
20260507045504 0 0.0 0.0 0.00 0.00 0.00 1011.3
20260507045403 0 0.0 0.0 0.00 0.00 0.00 1011.3
20260507045306 0 0.0 0.0 0.00 0.00 0.00 1011.3
20260507045204 0 0.0 0.0 0.00 0.00 0.00 1011.3
20260507045103 0 0.0 0.0 0.00 0.00 0.00 1011.4
20260507044933 0 0.0 0.0 0.00 0.00 0.00 1011.3
20260507044833 0 0.0 0.0 0.00 0.00 0.00 1011.3
20260507044733 0 0.0 0.0 0.00 0.00 0.00 1011.4
20260507044631 0 0.0 0.0 0.00 0.00 0.00 1011.3
20260507044532 0 0.0 0.0 0.00 0.00 0.00 1011.3
20260507044432 0 0.0 0.0 0.00 0.00 0.00 1011.3
20260507044332 0 0.0 0.0 0.00 0.00 0.00 1011.3
20260507044232 0 0.0 0.0 0.00 0.00 0.00 1011.2
20260507044132 0 0.0 0.0 0.00 0.00 0.00 1011.2
20260507044034 0 0.0 0.0 0.00 0.00 0.00 1011.2
20260507043932 0 0.0 0.0 0.00 0.00 0.00 1011.1
20260507043831 73 0 2.0 2.0 0.00 0.00 0.00 80 1011.2
20260507043732 73 0 2.0 2.0 0.00 0.00 0.00 80 1011.2
20260507043633 73 0 2.0 6.0 0.00 0.00 0.00 80 1011.1
20260507043532 73 0 2.0 10.0 0.00 0.00 0.00 80 1011.2
20260507043433 73 0 2.0 10.0 0.00 0.00 0.00 80 1011.2
20260507043333 73 0 2.0 10.0 0.00 0.00 0.00 80 1011.3
20260507043232 73 0 2.0 10.0 0.00 0.00 0.00 80 1011.3
20260507043131 73 0 2.0 10.0 0.00 0.00 0.00 80 1011.3
20260507043006 73 0 2.0 10.0 0.00 0.00 0.00 80 1011.3
20260507042903 73 0 2.0 10.0 0.00 0.00 0.00 80 1011.3
20260507042804 73 0 3.0 10.0 0.00 0.00 0.00 80 1011.3
20260507042703 73 0 3.0 10.0 0.00 0.00 0.00 80 1011.3
20260507042604 74 0 2.0 6.0 0.00 0.00 0.00 80 1011.2
20260507042502 74 0 2.0 6.0 0.00 0.00 0.00 80 1011.3
20260507042404 74 0 2.0 4.0 0.00 0.00 0.00 81 1011.4
20260507042306 74 0 2.0 4.0 0.00 0.00 0.00 81 1011.3
20260507042204 74 0 1.0 4.0 0.00 0.00 0.00 80 1011.3
20260507042103 74 0 2.0 4.0 0.00 0.00 0.00 80 1011.3
20260507042003 74 0 3.0 4.0 0.00 0.00 0.00 81 1011.4
20260507041903 0 0.0 0.0 0.00 0.00 0.00 1011.3
20260507041803 0 0.0 0.0 0.00 0.00 0.00 1011.4
20260507041703 0 0.0 0.0 0.00 0.00 0.00 1011.3
20260507041604 0 0.0 0.0 0.00 0.00 0.00 1011.3
20260507041503 0 0.0 0.0 0.00 0.00 0.00 1011.4
20260507041403 0 0.0 0.0 0.00 0.00 0.00 1011.4
20260507041303 0 0.0 0.0 0.00 0.00 0.00 1011.4
20260507041204 0 0.0 0.0 0.00 0.00 0.00 1011.4
20260507041103 0 0.0 0.0 0.00 0.00 0.00 1011.4
20260507041006 0 0.0 0.0 0.00 0.00 0.00 1011.5
20260507040904 0 0.0 0.0 0.00 0.00 0.00 1011.4
20260507040804 0 0.0 0.0 0.00 0.00 0.00 1011.5
20260507040703 0 0.0 0.0 0.00 0.00 0.00 1011.5
20260507040603 0 0.0 0.0 0.00 0.00 0.00 1011.4
20260507040503 0 0.0 0.0 0.00 0.00 0.00 1011.4
20260507040404 0 0.0 0.0 0.00 0.00 0.00 1011.4
20260507040303 0 0.0 0.0 0.00 0.00 0.00 1011.3
20260507040203 0 0.0 0.0 0.00 0.00 0.00 1011.4
20260507040050 0 0.0 0.0 0.00 0.00 0.00 1011.4
20260507035950 0 0.0 0.0 0.00 0.00 0.00 1011.3
20260507035848 0 0.0 0.0 0.00 0.00 0.00 1011.4
20260507035749 0 0.0 0.0 0.00 0.00 0.00 1011.3
20260507035648 0 0.0 0.0 0.00 0.00 0.00 1011.3
20260507035549 0 0.0 0.0 0.00 0.00 0.00 1011.2
20260507035448 0 0.0 0.0 0.00 0.00 0.00 1011.2
20260507035346 0 0.0 0.0 0.00 0.00 0.00 1011.2
20260507035248 0 0.0 0.0 0.00 0.00 0.00 1011.2
20260507035147 0 0.0 0.0 0.00 0.00 0.00 1011.3
20260507035048 0 0.0 0.0 0.00 0.00 0.00 1011.3
20260507034947 0 0.0 0.0 0.00 0.00 0.00 1011.2
20260507034845 0 0.0 0.0 0.00 0.00 0.00 1011.2
20260507034745 75 0 1.0 2.0 0.00 0.00 0.00 81 1011.1
20260507034645 75 0 1.0 2.0 0.00 0.00 0.00 81 1011.1
20260507034545 75 0 1.0 2.0 0.00 0.00 0.00 81 1011.1
20260507034445 75 0 1.0 2.0 0.00 0.00 0.00 81 1011.1
20260507034343 75 0 1.0 2.0 0.00 0.00 0.00 81 1011.1
20260507034243 75 0 1.0 2.0 0.00 0.00 0.00 81 1011.1
20260507034143 75 0 1.0 2.0 0.00 0.00 0.00 81 1011.0
20260507034044 75 0 1.0 2.0 0.00 0.00 0.00 81 1011.0
20260507033944 75 0 1.0 2.0 0.00 0.00 0.00 81 1011.0
20260507033843 75 0 1.0 2.0 0.00 0.00 0.00 81 1011.0
20260507033743 75 0 0.0 2.0 0.00 0.00 0.00 81 1010.9
20260507033643 75 0 0.0 2.0 0.00 0.00 0.00 81 1010.9
20260507033543 75 0 0.0 2.0 0.00 0.00 0.00 81 1010.9
20260507033444 75 0 0.0 2.0 0.00 0.00 0.00 81 1010.9
20260507033343 75 0 0.0 2.0 0.00 0.00 0.00 81 1010.9
20260507033243 75 0 0.0 2.0 0.00 0.00 0.00 81 1010.9
20260507033143 75 0 0.0 2.0 0.00 0.00 0.00 81 1010.8
20260507033043 76 0 2.0 2.0 0.00 0.00 0.00 81 1010.9
20260507032943 76 0 2.0 2.0 0.00 0.00 0.00 81 1010.8
20260507032841 76 0 2.0 5.0 0.00 0.00 0.00 81 1010.8
20260507032742 76 0 2.0 5.0 0.00 0.00 0.00 81 1010.8
20260507032641 76 0 2.0 5.0 0.00 0.00 0.00 81 1010.8
20260507032543 76 0 2.0 5.0 0.00 0.00 0.00 81 1010.7
20260507032441 76 0 2.0 5.0 0.00 0.00 0.00 81 1010.7
20260507032341 76 0 2.0 5.0 0.00 0.00 0.00 81 1010.7
20260507032241 76 0 2.0 5.0 0.00 0.00 0.00 81 1010.7
20260507032142 76 0 1.0 5.0 0.00 0.00 0.00 81 1010.6
20260507032040 76 0 1.0 5.0 0.00 0.00 0.00 81 1010.5
20260507031942 76 0 1.0 5.0 0.00 0.00 0.00 81 1010.5
20260507031842 76 0 1.0 3.0 0.00 0.00 0.00 81 1010.6
20260507031741 76 0 1.0 3.0 0.00 0.00 0.00 81 1010.5
20260507031642 76 0 3.0 3.0 0.00 0.00 0.00 81 1010.5
20260507031541 0 0.0 0.0 0.00 0.00 0.00 1010.5
20260507031442 0 0.0 0.0 0.00 0.00 0.00 1010.5
20260507031339 0 0.0 0.0 0.00 0.00 0.00 1010.5
20260507031231 0 0.0 0.0 0.00 0.00 0.00 1010.6
20260507031131 0 0.0 0.0 0.00 0.00 0.00 1010.5
20260507031032 0 0.0 0.0 0.00 0.00 0.00 1010.4
20260507030932 0 0.0 0.0 0.00 0.00 0.00 1010.3
20260507030833 0 0.0 0.0 0.00 0.00 0.00 1010.4
20260507030733 76 0 2.0 4.0 0.00 0.00 0.00 81 1010.4
20260507030632 76 0 2.0 6.0 0.00 0.00 0.00 81 1010.3
20260507030532 76 0 2.0 6.0 0.00 0.00 0.00 81 1010.2
20260507030432 76 0 2.0 6.0 0.00 0.00 0.00 81 1010.2
20260507030332 76 0 2.0 6.0 0.00 0.00 0.00 81 1010.3
20260507030232 76 0 2.0 6.0 0.00 0.00 0.00 81 1010.2
20260507030133 76 0 2.0 6.0 0.00 0.00 0.00 81 1010.2
20260507030032 76 0 2.0 6.0 0.00 0.00 0.00 81 1010.2
20260507025932 76 0 2.0 6.0 0.00 0.00 0.00 81 1010.2
20260507025808 76 0 2.0 6.0 0.00 0.00 0.00 81 1010.1
20260507025707 76 0 2.0 6.0 0.00 0.00 0.00 81 1010.2
20260507025604 76 0 2.0 6.0 0.00 0.00 0.00 81 1010.1
20260507025511 76 0 2.0 6.0 0.00 0.00 0.00 81 1010.1
20260507025405 76 0 2.0 6.0 0.00 0.00 0.00 81 1010.1
20260507025306 76 0 0.0 4.0 0.00 0.00 0.00 81 1010.1
20260507025203 76 0 0.0 4.0 0.00 0.00 0.00 81 1010.0
20260507025102 76 0 1.0 4.0 0.00 0.00 0.00 81 1010.0
20260507025005 0 0 4.0 4.0 0.00 0.00 0.00 1010.0
20260507024904 0 0.0 0.0 0.00 0.00 0.00 1009.9
20260507024804 0 0.0 0.0 0.00 0.00 0.00 1009.9
20260507024704 0 0.0 0.0 0.00 0.00 0.00 1009.8
20260507024604 0 0.0 0.0 0.00 0.00 0.00 1009.8
20260507024504 0 0.0 0.0 0.00 0.00 0.00 1009.8
20260507024404 0 0.0 0.0 0.00 0.00 0.00 1009.8
20260507024304 0 0.0 0.0 0.00 0.00 0.00 1009.8
20260507024203 0 0.0 0.0 0.00 0.00 0.00 1009.7
20260507024103 0 0.0 0.0 0.00 0.00 0.00 1009.7
20260507024004 0 0.0 0.0 0.00 0.00 0.00 1009.6
20260507023904 0 0.0 0.0 0.00 0.00 0.00 1009.5
20260507023803 77 0 0.0 0.0 0.00 0.00 0.00 81 1009.6
20260507023703 77 0 0.0 0.0 0.00 0.00 0.00 81 1009.5
20260507023603 77 0 0.0 0.0 0.00 0.00 0.00 81 1009.5
20260507023503 77 0 0.0 2.0 0.00 0.00 0.00 81 1009.5
20260507023404 77 0 0.0 2.0 0.00 0.00 0.00 81 1009.4
20260507023302 77 0 0.0 7.0 0.00 0.00 0.00 81 1009.4
20260507023203 77 0 0.0 7.0 0.00 0.00 0.00 81 1009.4
20260507023103 77 0 0.0 7.0 0.00 0.00 0.00 81 1009.4
20260507023004 77 0 0.0 7.0 0.00 0.00 0.00 81 1009.4
20260507022903 77 0 0.0 7.0 0.00 0.00 0.00 81 1009.3
20260507022804 77 0 0.0 7.0 0.00 0.00 0.00 81 1009.3
20260507022702 77 0 0.0 7.0 0.00 0.00 0.00 81 1009.3
20260507022604 78 0 1.0 7.0 0.00 0.00 0.00 81 1009.3
20260507022503 78 0 2.0 7.0 0.00 0.00 0.00 81 1009.3
20260507022403 78 0 2.0 7.0 0.00 0.00 0.00 81 1009.3
20260507022306 78 0 1.0 4.0 0.00 0.00 0.00 81 1009.2
20260507022202 78 0 2.0 4.0 0.00 0.00 0.00 81 1009.3
20260507022104 78 0 2.0 4.0 0.00 0.00 0.00 81 1009.3
20260507022004 78 0 2.0 4.0 0.00 0.00 0.00 81 1009.2
20260507021904 0 0.0 0.0 0.00 0.00 0.00 1009.2
20260507021803 78 0 0.0 0.0 0.00 0.00 0.00 82 1009.3
20260507021703 78 0 0.0 1.0 0.00 0.00 0.00 82 1009.2
20260507021603 78 0 0.0 1.0 0.00 0.00 0.00 82 1009.2
20260507021504 78 0 0.0 2.0 0.00 0.00 0.00 82 1009.2
20260507021404 78 0 0.0 5.0 0.00 0.00 0.00 82 1009.2
20260507021303 78 0 0.0 5.0 0.00 0.00 0.00 82 1009.1
20260507021203 78 0 0.0 5.0 0.00 0.00 0.00 82 1009.1
20260507021104 78 0 0.0 5.0 0.00 0.00 0.00 82 1009.1
20260507021003 78 0 0.0 5.0 0.00 0.00 0.00 82 1009.1
20260507020903 78 0 0.0 5.0 0.00 0.00 0.00 82 1009.1
20260507020804 78 0 1.0 5.0 0.00 0.00 0.00 82 1009.1
20260507020632 78 0 2.0 5.0 0.00 0.00 0.00 82 1009.0
20260507020531 78 0 2.0 5.0 0.00 0.00 0.00 82 1009.0
20260507020431 78 0 1.0 4.0 0.00 0.00 0.00 82 1009.0
20260507020330 78 0 1.0 4.0 0.00 0.00 0.00 82 1009.0
20260507020229 78 0 1.0 4.0 0.00 0.00 0.00 82 1008.9
20260507020126 78 0 0.0 3.0 0.00 0.00 0.00 82 1008.9
20260507020026 79 0 0.0 0.0 0.00 0.00 0.00 81 1008.9
20260507015925 0 0.0 0.0 0.00 0.00 0.00 1008.8
20260507015825 0 0.0 0.0 0.00 0.00 0.00 1008.9
20260507015722 0 0.0 0.0 0.00 0.00 0.00 1008.9
20260507015622 0 0.0 0.0 0.00 0.00 0.00 1009.0
20260507015522 0 0.0 0.0 0.00 0.00 0.00 1008.9
20260507015422 0 0.0 0.0 0.00 0.00 0.00 1008.9
20260507015322 0 0.0 0.0 0.00 0.00 0.00 1008.9
20260507015221 0 0.0 0.0 0.00 0.00 0.00 1008.9
20260507015122 0 0.0 0.0 0.00 0.00 0.00 1008.9
20260507015021 80 0 3.0 4.0 0.00 0.00 0.00 81 1008.8
20260507014920 80 0 3.0 4.0 0.00 0.00 0.00 81 1008.9
20260507014820 80 0 3.0 4.0 0.00 0.00 0.00 81 1008.9
20260507014719 80 0 3.0 4.0 0.00 0.00 0.00 81 1008.8
20260507014619 80 0 3.0 4.0 0.00 0.00 0.00 81 1008.9
20260507014519 80 0 3.0 4.0 0.00 0.00 0.00 81 1008.9
20260507014420 80 0 3.0 4.0 0.00 0.00 0.00 81 1008.9
20260507014319 80 0 3.0 4.0 0.00 0.00 0.00 81 1008.8
20260507014221 80 0 3.0 4.0 0.00 0.00 0.00 81 1008.8
20260507014117 80 0 3.0 4.0 0.00 0.00 0.00 81 1008.8
20260507014019 80 0 3.0 4.0 0.00 0.00 0.00 81 1008.8
20260507013918 80 0 2.0 4.0 0.00 0.00 0.00 81 1008.7
20260507013819 80 0 2.0 4.0 0.00 0.00 0.00 81 1008.7
20260507013717 80 0 2.0 3.0 0.00 0.00 0.00 81 1008.7
20260507013619 80 0 2.0 3.0 0.00 0.00 0.00 81 1008.6
20260507013519 0 0.0 0.0 0.00 0.00 0.00 1008.5
20260507013418 0 0.0 0.0 0.00 0.00 0.00 1008.5
20260507013318 0 0.0 0.0 0.00 0.00 0.00 1008.5
20260507013217 0 0.0 0.0 0.00 0.00 0.00 1008.5
20260507013117 0 0.0 0.0 0.00 0.00 0.00 1008.5
20260507013017 0 0.0 0.0 0.00 0.00 0.00 1008.5
20260507012917 0 0.0 0.0 0.00 0.00 0.00 1008.5
20260507012816 0 0.0 0.0 0.00 0.00 0.00 1008.5
20260507012715 0 0.0 0.0 0.00 0.00 0.00 1008.4
20260507012616 0 0.0 0.0 0.00 0.00 0.00 1008.4
20260507012515 0 0.0 0.0 0.00 0.00 0.00 1008.4
20260507012416 0 0.0 0.0 0.00 0.00 0.00 1008.2
20260507012314 0 0.0 0.0 0.00 0.00 0.00 1008.2
20260507012214 0 0.0 0.0 0.00 0.00 0.00 1008.2
20260507012114 0 0.0 0.0 0.00 0.00 0.00 1008.1
20260507012013 0 0.0 0.0 0.00 0.00 0.00 1008.1
20260507011913 0 0.0 0.0 0.00 0.00 0.00 1008.0
20260507011811 0 0.0 0.0 0.00 0.00 0.00 1008.0
20260507011712 0 0.0 0.0 0.00 0.00 0.00 1008.0
20260507011611 0 0.0 0.0 0.00 0.00 0.00 1008.0
20260507011511 0 0.0 0.0 0.00 0.00 0.00 1008.0
20260507011411 0 0.0 0.0 0.00 0.00 0.00 1007.9
20260507011310 0 0.0 0.0 0.00 0.00 0.00 1007.9
20260507011210 0 0.0 0.0 0.00 0.00 0.00 1008.0
20260507011109 0 0.0 0.0 0.00 0.00 0.00 1007.9
20260507011010 0 0.0 0.0 0.00 0.00 0.00 1007.9
20260507010909 0 0.0 0.0 0.00 0.00 0.00 1007.9
20260507010809 0 0.0 0.0 0.00 0.00 0.00 1008.0
20260507010709 0 0.0 0.0 0.00 0.00 0.00 1007.9
20260507010610 0 0.0 0.0 0.00 0.00 0.00 1007.9
20260507010509 0 0.0 0.0 0.00 0.00 0.00 1007.8
20260507010409 0 0.0 0.0 0.00 0.00 0.00 1007.8
20260507010305 0 0.0 0.0 0.00 0.00 0.00 1007.8
20260507010204 0 0.0 0.0 0.00 0.00 0.00 1007.8
20260507010104 0 0.0 0.0 0.00 0.00 0.00 1007.8
20260507010004 0 0.0 0.0 0.00 0.00 0.00 1007.7
20260507005902 0 0.0 0.0 0.00 0.00 0.00 1007.7
20260507005803 0 0.0 0.0 0.00 0.00 0.00 1007.7
20260507005703 0 0.0 0.0 0.00 0.00 0.00 1007.6
20260507005603 0 0.0 0.0 0.00 0.00 0.00 1007.6
20260507005503 0 0.0 0.0 0.00 0.00 0.00 1007.6
20260507005403 0 0.0 0.0 0.00 0.00 0.00 1007.5
20260507005305 0 0.0 0.0 0.00 0.00 0.00 1007.5
20260507005203 0 0.0 0.0 0.00 0.00 0.00 1007.5
20260507005102 0 0.0 0.0 0.00 0.00 0.00 1007.5
20260507005004 0 0.0 0.0 0.00 0.00 0.00 1007.5
20260507004902 0 0.0 0.0 0.00 0.00 0.00 1007.5
20260507004800 0 0.0 0.0 0.00 0.00 0.00 1007.4
20260507004700 83 202 4.0 4.0 0.00 0.00 0.00 84 1007.4
20260507004601 83 202 4.0 6.0 0.00 0.00 0.00 84 1007.4
20260507004500 83 202 4.0 7.0 0.00 0.00 0.00 84 1007.4
20260507004401 83 202 4.0 7.0 0.00 0.00 0.00 84 1007.4
20260507004258 83 202 4.0 7.0 0.00 0.00 0.00 84 1007.4
20260507004159 83 202 4.0 7.0 0.00 0.00 0.00 84 1007.4
20260507004059 83 202 4.0 7.0 0.00 0.00 0.00 84 1007.4
20260507003958 83 202 4.0 7.0 0.00 0.00 0.00 84 1007.4
20260507003859 83 202 4.0 7.0 0.00 0.00 0.00 84 1007.3
20260507003758 83 202 4.0 7.0 0.00 0.00 0.00 84 1007.3
20260507003657 83 200 4.0 7.0 0.00 0.00 0.00 84 1007.3
20260507003557 83 202 5.0 7.0 0.00 0.00 0.00 84 1007.3
20260507003458 83 200 5.0 7.0 0.00 0.00 0.00 84 1007.3
20260507003357 83 200 3.0 6.0 0.00 0.00 0.00 84 1007.2
20260507003257 83 197 1.0 5.0 0.00 0.00 0.00 84 1007.3
20260507003159 83 202 0.0 6.0 0.00 0.00 0.00 84 1007.2
20260507003058 83 196 2.0 6.0 0.00 0.00 0.00 84 1007.3
20260507002957 83 197 4.0 6.0 0.00 0.00 0.00 84 1007.4
20260507002856 83 197 4.0 6.0 0.00 0.00 0.00 84 1007.3
20260507002758 83 197 4.0 6.0 0.00 0.00 0.00 84 1007.4
20260507002656 83 197 4.0 6.0 0.00 0.00 0.00 84 1007.4
20260507002558 83 197 4.0 6.0 0.00 0.00 0.00 84 1007.3
20260507002455 83 197 4.0 6.0 0.00 0.00 0.00 84 1007.4
20260507002356 83 196 4.0 6.0 0.00 0.00 0.00 84 1007.4
20260507002255 83 197 4.0 6.0 0.00 0.00 0.00 84 1007.4
20260507002156 83 197 4.0 6.0 0.00 0.00 0.00 84 1007.4
20260507002056 83 197 4.0 6.0 0.00 0.00 0.00 84 1007.4
20260507001956 83 196 2.0 5.0 0.00 0.00 0.00 84 1007.5
20260507001857 83 193 3.0 7.0 0.00 0.00 0.00 84 1007.4
20260507001756 83 204 4.0 7.0 0.00 0.00 0.00 84 1007.5
20260507001657 83 207 3.0 7.0 0.00 0.00 0.00 84 1007.4
20260507001556 83 207 3.0 7.0 0.00 0.00 0.00 84 1007.4
20260507001455 83 207 3.0 7.0 0.00 0.00 0.00 84 1007.4
20260507001354 83 207 3.0 7.0 0.00 0.00 0.00 84 1007.3
20260507001255 83 207 3.0 7.0 0.00 0.00 0.00 84 1007.3
20260507001154 83 207 3.0 7.0 0.00 0.00 0.00 84 1007.4
20260507001054 83 207 3.0 7.0 0.00 0.00 0.00 84 1007.4
20260507000953 83 207 3.0 7.0 0.00 0.00 0.00 84 1007.3
20260507000854 83 178 2.0 4.0 0.00 0.00 0.00 84 1007.3
20260507000755 83 178 3.0 4.0 0.00 0.00 0.00 84 1007.2
20260507000655 83 178 3.0 4.0 0.00 0.00 0.00 81 1007.2
20260507000555 0 141 2.0 2.0 0.00 0.00 0.00 1007.1
20260507000454 0 141 2.0 2.0 0.00 0.00 0.00 1007.1
20260507000354 0 141 2.0 2.0 0.00 0.00 0.00 1007.2
20260507000254 0 141 2.0 2.0 0.00 0.00 0.00 1007.2
20260507000154 0 0.0 0.0 0.00 0.00 0.00 1007.1
20260507000056 0 0.0 0.0 0.00 0.00 0.00 1007.1
20260506235952 0 0.0 0.0 0.00 0.00 0.00 1007.1
20260506235853 0 0.0 0.0 0.00 0.00 0.00 1007.1
20260506235752 0 0.0 0.0 0.00 0.00 0.00 1007.1
20260506235652 0 0.0 0.0 0.00 0.00 0.00 1007.2
20260506235552 0 0.0 0.0 0.00 0.00 0.00 1007.2
20260506235452 0 0.0 0.0 0.00 0.00 0.00 1007.2
20260506235350 0 0.0 0.0 0.00 0.00 0.00 1007.2
20260506235251 0 0.0 0.0 0.00 0.00 0.00 1007.2
20260506235151 0 0.0 0.0 0.00 0.00 0.00 1007.2
20260506235051 0 0.0 0.0 0.00 0.00 0.00 1007.2
20260506234948 0 0.0 0.0 0.00 0.00 0.00 1007.3
20260506234848 0 0.0 0.0 0.00 0.00 0.00 1007.3
20260506234749 0 0.0 0.0 0.00 0.00 0.00 1007.3
20260506234649 0 0.0 0.0 0.00 0.00 0.00 1007.3
20260506234548 0 0.0 0.0 0.00 0.00 0.00 1007.3
20260506234447 0 0.0 0.0 0.00 0.00 0.00 1007.4
20260506234348 0 0.0 0.0 0.00 0.00 0.00 1007.3
20260506234246 0 0.0 0.0 0.00 0.00 0.00 1007.3
20260506234147 0 0.0 0.0 0.00 0.00 0.00 1007.3
20260506234047 0 0.0 0.0 0.00 0.00 0.00 1007.3
20260506233945 0 0.0 0.0 0.00 0.00 0.00 1007.2
20260506233845 0 0.0 0.0 0.00 0.00 0.00 1007.2
20260506233744 0 0.0 0.0 0.00 0.00 0.00 1007.1
20260506233645 0 0.0 0.0 0.00 0.00 0.00 1007.1
20260506233545 0 0.0 0.0 0.00 0.00 0.00 1007.1
20260506233444 0 0.0 0.0 0.00 0.00 0.00 1007.1
20260506233343 0 0.0 0.0 0.00 0.00 0.00 1007.1
20260506233243 0 0.0 0.0 0.00 0.00 0.00 1007.2
20260506233144 0 0.0 0.0 0.00 0.00 0.00 1007.2
20260506233043 0 0.0 0.0 0.00 0.00 0.00 1007.2
20260506232942 0 0.0 0.0 0.00 0.00 0.00 1007.2
20260506232841 84 186 3.0 4.0 0.00 0.00 0.00 81 1007.1
20260506232743 84 186 3.0 4.0 0.00 0.00 0.00 81 1007.2
20260506232641 84 186 3.0 4.0 0.00 0.00 0.00 81 1007.1
20260506232542 84 186 3.0 4.0 0.00 0.00 0.00 81 1007.1
20260506232439 84 186 3.0 4.0 0.00 0.00 0.00 81 1007.1
20260506232339 84 186 3.0 4.0 0.00 0.00 0.00 81 1007.1
20260506232239 84 186 3.0 4.0 0.00 0.00 0.00 81 1007.1
20260506232140 84 186 3.0 4.0 0.00 0.00 0.00 81 1007.1
20260506232040 84 186 3.0 4.0 0.00 0.00 0.00 81 1007.0
20260506231939 84 186 3.0 5.0 0.00 0.00 0.00 81 1007.0
20260506231839 85 185 2.0 5.0 0.00 0.00 0.00 81 1007.0
20260506231739 85 185 2.0 5.0 0.00 0.00 0.00 81 1007.0
20260506231639 85 185 2.0 5.0 0.00 0.00 0.00 81 1007.0
20260506231539 85 185 2.0 5.0 0.00 0.00 0.00 81 1007.0
20260506231440 85 185 3.0 5.0 0.00 0.00 0.00 80 1007.0
20260506231339 85 186 5.0 5.0 0.00 0.00 0.00 80 1006.9
20260506231239 85 186 5.0 5.0 0.00 0.00 0.00 80 1007.0
20260506231139 85 186 5.0 5.0 0.00 0.00 0.00 80 1007.0
20260506231039 85 186 5.0 5.0 0.00 0.00 0.00 80 1006.9
20260506230939 85 188 2.0 6.0 0.00 0.00 0.00 80 1007.0
20260506230839 85 188 2.0 6.0 0.00 0.00 0.00 80 1007.0
20260506230739 85 188 2.0 6.0 0.00 0.00 0.00 80 1007.0
20260506230639 85 188 2.0 6.0 0.00 0.00 0.00 80 1006.9
20260506230539 85 188 2.0 6.0 0.00 0.00 0.00 80 1007.0
20260506230439 85 188 3.0 6.0 0.00 0.00 0.00 79 1006.9
20260506230338 85 190 2.0 6.0 0.00 0.00 0.00 80 1006.9
20260506230238 85 190 1.0 6.0 0.00 0.00 0.00 80 1006.9
20260506230140 85 190 4.0 6.0 0.00 0.00 0.00 79 1006.9
20260506230038 85 190 4.0 6.0 0.00 0.00 0.00 79 1006.9
20260506225941 85 186 2.0 3.0 0.00 0.00 0.00 80 1006.9
20260506225839 0 0.0 0.0 0.00 0.00 0.00 1006.9
20260506225738 0 0.0 0.0 0.00 0.00 0.00 1006.9
20260506225638 0 0.0 0.0 0.00 0.00 0.00 1006.9
20260506225537 0 0.0 0.0 0.00 0.00 0.00 1006.9
20260506225437 0 0.0 0.0 0.00 0.00 0.00 1006.9
20260506225336 0 0.0 0.0 0.00 0.00 0.00 1006.9
20260506225237 0 0.0 0.0 0.00 0.00 0.00 1006.9
20260506225134 0 0.0 0.0 0.00 0.00 0.00 1006.9
20260506225034 0 200 5.0 3.0 0.00 0.00 0.00 1007.0
20260506224935 86 200 5.0 7.0 0.00 0.00 0.00 79 1007.0
20260506224834 86 200 5.0 7.0 0.00 0.00 0.00 79 1007.0
20260506224733 86 200 5.0 7.0 0.00 0.00 0.00 79 1006.9
20260506224632 86 200 5.0 7.0 0.00 0.00 0.00 79 1006.9
20260506224532 86 200 5.0 9.0 0.00 0.00 0.00 79 1006.9
20260506224432 86 200 5.0 9.0 0.00 0.00 0.00 79 1006.9
20260506224334 86 200 5.0 9.0 0.00 0.00 0.00 79 1006.9
20260506224233 86 200 5.0 9.0 0.00 0.00 0.00 79 1006.8
20260506224132 86 200 5.0 9.0 0.00 0.00 0.00 79 1006.8
20260506224031 86 200 4.0 9.0 0.00 0.00 0.00 79 1006.8
20260506223932 86 207 3.0 9.0 0.00 0.00 0.00 79 1006.8
20260506223832 86 217 4.0 9.0 0.00 0.00 0.00 79 1006.9
20260506223707 86 214 5.0 9.0 0.00 0.00 0.00 79 1006.8
20260506223607 86 185 3.0 6.0 0.00 0.00 0.00 79 1006.8
20260506223504 86 178 3.0 6.0 0.00 0.00 0.00 79 1006.8
20260506223402 86 185 3.0 6.0 0.00 0.00 0.00 79 1006.9
20260506223303 0 186 4.0 4.0 0.00 0.00 0.00 1006.9
20260506223204 0 0.0 0.0 0.00 0.00 0.00 1006.9
20260506223104 0 0.0 0.0 0.00 0.00 0.00 1006.8
20260506223004 0 0.0 0.0 0.00 0.00 0.00 1006.9
20260506222903 0 0.0 0.0 0.00 0.00 0.00 1006.8
20260506222803 0 0.0 0.0 0.00 0.00 0.00 1006.8
20260506222704 0 0.0 0.0 0.00 0.00 0.00 1006.9
20260506222603 0 0.0 0.0 0.00 0.00 0.00 1006.8
20260506222503 0 0.0 0.0 0.00 0.00 0.00 1006.8
20260506222403 0 0.0 0.0 0.00 0.00 0.00 1006.8
20260506222306 0 0.0 0.0 0.00 0.00 0.00 1006.7
20260506222203 0 0.0 0.0 0.00 0.00 0.00 1006.7
20260506222104 0 0.0 0.0 0.00 0.00 0.00 1006.6
20260506222004 0 0.0 0.0 0.00 0.00 0.00 1006.7
20260506221904 0 0.0 0.0 0.00 0.00 0.00 1006.6
20260506221803 0 0.0 0.0 0.00 0.00 0.00 1006.7
20260506221703 0 0.0 0.0 0.00 0.00 0.00 1006.7
20260506221602 0 0.0 0.0 0.00 0.00 0.00 1006.7
20260506221507 0 0.0 0.0 0.00 0.00 0.00 1006.7
20260506221403 0 0.0 0.0 0.00 0.00 0.00 1006.8
20260506221303 0 0.0 0.0 0.00 0.00 0.00 1006.8
20260506221204 0 0.0 0.0 0.00 0.00 0.00 1006.7
20260506221104 0 0.0 0.0 0.00 0.00 0.00 1006.7
20260506221005 0 0.0 0.0 0.00 0.00 0.00 1006.8
20260506220902 0 0.0 0.0 0.00 0.00 0.00 1006.7
20260506220803 0 0.0 0.0 0.00 0.00 0.00 1006.7
20260506220703 0 0.0 0.0 0.00 0.00 0.00 1006.7
20260506220603 0 0.0 0.0 0.00 0.00 0.00 1006.6
20260506220503 0 0.0 0.0 0.00 0.00 0.00 1006.7
20260506220403 0 0.0 0.0 0.00 0.00 0.00 1006.7
20260506220303 0 0.0 0.0 0.00 0.00 0.00 1006.7
20260506220203 0 0.0 0.0 0.00 0.00 0.00 1006.8
20260506220004 0 0.0 0.0 0.00 0.00 0.00 1006.7
20260506215903 0 0.0 0.0 0.00 0.00 0.00 1006.6
20260506215803 0 0.0 0.0 0.00 0.00 0.00 1006.7
20260506215704 0 0.0 0.0 0.00 0.00 0.00 1006.8
20260506215604 0 0.0 0.0 0.00 0.00 0.00 1006.7
20260506215504 0 0.0 0.0 0.00 0.00 0.00 1006.7
20260506215403 0 0.0 0.0 0.00 0.00 0.00 1006.7
20260506215305 0 0.0 0.0 0.00 0.00 0.00 1006.6
20260506215204 0 0.0 0.0 0.00 0.00 0.00 1006.6
20260506215103 0 0.0 0.0 0.00 0.00 0.00 1006.6
20260506215006 0 0.0 0.0 0.00 0.00 0.00 1006.6
20260506214903 0 0.0 0.0 0.00 0.00 0.00 1006.6
20260506214803 0 0.0 0.0 0.00 0.00 0.00 1006.6
20260506214703 0 0.0 0.0 0.00 0.00 0.00 1006.6
20260506214603 0 0.0 0.0 0.00 0.00 0.00 1006.6
20260506214504 0 188 6.0 5.0 0.00 0.00 0.00 1006.5
20260506214403 86 188 6.0 7.0 0.00 0.00 0.00 78 1006.6
20260506214303 86 188 6.0 7.0 0.00 0.00 0.00 78 1006.6
20260506214203 86 188 6.0 7.0 0.00 0.00 0.00 78 1006.6
20260506214103 86 188 6.0 7.0 0.00 0.00 0.00 78 1006.6
20260506214003 86 188 6.0 7.0 0.00 0.00 0.00 78 1006.6
20260506213903 86 188 6.0 7.0 0.00 0.00 0.00 78 1006.5
20260506213803 86 188 6.0 7.0 0.00 0.00 0.00 78 1006.5
20260506213703 86 188 6.0 7.0 0.00 0.00 0.00 78 1006.6
20260506213604 86 188 6.0 7.0 0.00 0.00 0.00 78 1006.6
20260506213503 86 180 6.0 7.0 0.00 0.00 0.00 78 1006.6
20260506213403 87 220 5.0 6.0 0.00 0.00 0.00 78 1006.6
20260506213305 87 220 5.0 6.0 0.00 0.00 0.00 78 1006.7
20260506213204 87 220 5.0 6.0 0.00 0.00 0.00 78 1006.7
20260506213103 87 220 5.0 6.0 0.00 0.00 0.00 78 1006.7
20260506213004 87 220 5.0 6.0 0.00 0.00 0.00 78 1006.8
20260506212903 87 220 5.0 6.0 0.00 0.00 0.00 78 1006.8
20260506212803 87 220 5.0 6.0 0.00 0.00 0.00 79 1006.7
20260506212702 0 0.0 0.0 0.00 0.00 0.00 1006.7
20260506212603 0 0.0 0.0 0.00 0.00 0.00 1006.8
20260506212503 0 0.0 0.0 0.00 0.00 0.00 1006.8
20260506212403 0 0.0 0.0 0.00 0.00 0.00 1006.8
20260506212306 0 0.0 0.0 0.00 0.00 0.00 1006.8
20260506212203 0 0.0 0.0 0.00 0.00 0.00 1006.8
20260506212104 0 0.0 0.0 0.00 0.00 0.00 1006.8
20260506212004 0 0.0 0.0 0.00 0.00 0.00 1006.8
20260506211904 0 0.0 0.0 0.00 0.00 0.00 1006.9
20260506211803 0 0.0 0.0 0.00 0.00 0.00 1006.8
20260506211704 0 0.0 0.0 0.00 0.00 0.00 1006.9
20260506211604 0 0.0 0.0 0.00 0.00 0.00 1006.8
20260506211504 0 0.0 0.0 0.00 0.00 0.00 1006.9
20260506211403 0 0.0 0.0 0.00 0.00 0.00 1007.0
20260506211302 0 0.0 0.0 0.00 0.00 0.00 1006.9
20260506211203 0 0.0 0.0 0.00 0.00 0.00 1006.9
20260506211103 0 0.0 0.0 0.00 0.00 0.00 1006.9
20260506211004 0 0.0 0.0 0.00 0.00 0.00 1006.9
20260506210902 0 0.0 0.0 0.00 0.00 0.00 1006.9
20260506210803 0 0.0 0.0 0.00 0.00 0.00 1006.9
20260506210703 0 0.0 0.0 0.00 0.00 0.00 1006.9
20260506210603 0 0.0 0.0 0.00 0.00 0.00 1006.9
20260506210502 0 0.0 0.0 0.00 0.00 0.00 1007.0
20260506210403 86 250 6.0 7.0 0.00 0.00 0.00 77 1007.0
20260506210304 86 250 6.0 12.0 0.00 0.00 0.00 77 1007.0
20260506210203 86 250 6.0 12.0 0.00 0.00 0.00 77 1006.9
20260506210003 86 250 6.0 12.0 0.00 0.00 0.00 77 1007.0
20260506205901 86 250 6.0 12.0 0.00 0.00 0.00 77 1007.1
20260506205802 86 250 6.0 12.0 0.00 0.00 0.00 77 1007.0
20260506205701 86 250 6.0 12.0 0.00 0.00 0.00 77 1007.0
20260506205602 86 250 6.0 12.0 0.00 0.00 0.00 77 1007.0
20260506205502 86 250 6.0 12.0 0.00 0.00 0.00 77 1007.0
20260506205402 86 212 6.0 12.0 0.00 0.00 0.00 77 1007.0
20260506205305 86 224 6.0 10.0 0.00 0.00 0.00 78 1007.0
20260506205202 86 244 6.0 10.0 0.00 0.00 0.00 79 1007.0
20260506205102 86 192 5.0 5.0 0.00 0.00 0.00 81 1007.0
20260506205003 85 189 3.0 3.0 0.00 0.00 0.00 81 1007.0
20260506204902 85 189 3.0 5.0 0.00 0.00 0.00 81 1007.1
20260506204802 85 189 3.0 5.0 0.00 0.00 0.00 81 1007.0
20260506204702 85 189 3.0 5.0 0.00 0.00 0.00 81 1007.0
20260506204601 85 193 4.0 5.0 0.00 0.00 0.00 81 1007.0
20260506204502 85 193 4.0 7.0 0.00 0.00 0.00 81 1007.0
20260506204402 85 193 4.0 7.0 0.00 0.00 0.00 81 1007.0
20260506204302 85 193 4.0 7.0 0.00 0.00 0.00 81 1007.0
20260506204201 85 193 4.0 7.0 0.00 0.00 0.00 81 1007.0
20260506204102 85 193 4.0 7.0 0.00 0.00 0.00 81 1007.1
20260506204002 85 193 4.0 7.0 0.00 0.00 0.00 81 1007.1
20260506203902 85 193 3.0 7.0 0.00 0.00 0.00 81 1007.1
20260506203802 85 193 4.0 7.0 0.00 0.00 0.00 80 1007.2
20260506203703 85 193 4.0 7.0 0.00 0.00 0.00 80 1007.2
20260506203603 85 195 4.0 7.0 0.00 0.00 0.00 81 1007.2
20260506203504 85 195 3.0 7.0 0.00 0.00 0.00 81 1007.1
20260506203401 85 195 3.0 7.0 0.00 0.00 0.00 81 1007.2
20260506203303 85 195 4.0 7.0 0.00 0.00 0.00 81 1007.2
20260506203204 85 195 5.0 6.0 0.00 0.00 0.00 81 1007.2
20260506203101 0 0.0 0.0 0.00 0.00 0.00 1007.2
20260506203004 0 0.0 0.0 0.00 0.00 0.00 1007.2
20260506202904 0 0.0 0.0 0.00 0.00 0.00 1007.2
20260506202804 0 0.0 0.0 0.00 0.00 0.00 1007.2
20260506202704 0 0.0 0.0 0.00 0.00 0.00 1007.2
20260506202604 0 0.0 0.0 0.00 0.00 0.00 1007.2
20260506202504 0 0.0 0.0 0.00 0.00 0.00 1007.1
20260506202404 0 0.0 0.0 0.00 0.00 0.00 1007.3
20260506202306 0 0.0 0.0 0.00 0.00 0.00 1007.2
20260506202203 0 0.0 0.0 0.00 0.00 0.00 1007.3
20260506202104 0 0.0 0.0 0.00 0.00 0.00 1007.2
20260506202004 0 0.0 0.0 0.00 0.00 0.00 1007.2
20260506201903 0 210 2.0 1.0 0.00 0.00 0.00 1007.3
20260506201803 0 210 2.0 2.0 0.00 0.00 0.00 1007.3
20260506201703 0 210 2.0 2.0 0.00 0.00 0.00 1007.3
20260506201603 0 210 2.0 2.0 0.00 0.00 0.00 1007.3
20260506201504 0 210 2.0 2.0 0.00 0.00 0.00 1007.2
20260506201403 0 210 2.0 2.0 0.00 0.00 0.00 1007.4
20260506201303 0 210 2.0 2.0 0.00 0.00 0.00 1007.3
20260506201203 0 210 2.0 2.0 0.00 0.00 0.00 1007.3
20260506201103 0 210 2.0 2.0 0.00 0.00 0.00 1007.3
20260506201003 0 210 2.0 2.0 0.00 0.00 0.00 1007.3
20260506200902 0 210 2.0 2.0 0.00 0.00 0.00 1007.3
20260506200803 0 0.0 0.0 0.00 0.00 0.00 1007.3
20260506200703 0 0.0 0.0 0.00 0.00 0.00 1007.4
20260506200603 0 0.0 0.0 0.00 0.00 0.00 1007.4
20260506200504 0 0.0 0.0 0.00 0.00 0.00 1007.4
20260506200403 0 0.0 0.0 0.00 0.00 0.00 1007.4
20260506200304 0 0.0 0.0 0.00 0.00 0.00 1007.4
20260506200203 84 175 3.0 4.0 0.00 0.00 0.00 81 1007.5
20260506200104 84 175 3.0 6.0 0.00 0.00 0.00 81 1007.5
20260506200004 84 175 3.0 6.0 0.00 0.00 0.00 81 1007.4
20260506195904 84 175 3.0 6.0 0.00 0.00 0.00 81 1007.5
20260506195805 84 175 3.0 7.0 0.00 0.00 0.00 81 1007.4
20260506195703 84 175 3.0 7.0 0.00 0.00 0.00 81 1007.4
20260506195604 84 175 3.0 9.0 0.00 0.00 0.00 81 1007.4
20260506195503 84 175 3.0 9.0 0.00 0.00 0.00 81 1007.4
20260506195403 84 175 3.0 9.0 0.00 0.00 0.00 81 1007.5
20260506195306 84 175 3.0 9.0 0.00 0.00 0.00 81 1007.5
20260506195202 84 175 4.0 9.0 0.00 0.00 0.00 81 1007.5
20260506195102 84 175 4.0 9.0 0.00 0.00 0.00 81 1007.5
20260506195003 84 175 5.0 9.0 0.00 0.00 0.00 81 1007.5
20260506194902 84 175 5.0 9.0 0.00 0.00 0.00 81 1007.5
20260506194802 84 175 5.0 9.0 0.00 0.00 0.00 81 1007.5
20260506194702 84 173 5.0 9.0 0.00 0.00 0.00 80 1007.5
20260506194603 84 176 4.0 7.0 0.00 0.00 0.00 81 1007.5
20260506194504 0 0.0 0.0 0.00 0.00 0.00 1007.5
20260506194403 0 0.0 0.0 0.00 0.00 0.00 1007.5
20260506194303 0 0.0 0.0 0.00 0.00 0.00 1007.5
20260506194204 0 0.0 0.0 0.00 0.00 0.00 1007.5
20260506194104 0 0.0 0.0 0.00 0.00 0.00 1007.5
20260506194003 0 0.0 0.0 0.00 0.00 0.00 1007.5
20260506193904 0 0.0 0.0 0.00 0.00 0.00 1007.5
20260506193803 0 0.0 0.0 0.00 0.00 0.00 1007.5
20260506193704 0 0.0 0.0 0.00 0.00 0.00 1007.6
20260506193603 0 0.0 0.0 0.00 0.00 0.00 1007.6
20260506193505 0 0.0 0.0 0.00 0.00 0.00 1007.5
20260506193403 0 0.0 0.0 0.00 0.00 0.00 1007.5
20260506193304 0 0.0 0.0 0.00 0.00 0.00 1007.4
20260506193203 0 0.0 0.0 0.00 0.00 0.00 1007.5
20260506193103 0 0.0 0.0 0.00 0.00 0.00 1007.5
20260506193003 0 0.0 0.0 0.00 0.00 0.00 1007.5
20260506192903 0 0.0 0.0 0.00 0.00 0.00 1007.6
20260506192803 0 0.0 0.0 0.00 0.00 0.00 1007.6
20260506192703 0 0.0 0.0 0.00 0.00 0.00 1007.6
20260506192603 0 0.0 0.0 0.00 0.00 0.00 1007.6
20260506192504 0 0.0 0.0 0.00 0.00 0.00 1007.6
20260506192403 0 0.0 0.0 0.00 0.00 0.00 1007.7
20260506192305 0 0.0 0.0 0.00 0.00 0.00 1007.6
20260506192202 0 0.0 0.0 0.00 0.00 0.00 1007.7
20260506192103 0 0.0 0.0 0.00 0.00 0.00 1007.7
20260506192003 0 0.0 0.0 0.00 0.00 0.00 1007.7
20260506191903 0 0.0 0.0 0.00 0.00 0.00 1007.6
20260506191803 0 0.0 0.0 0.00 0.00 0.00 1007.6
20260506191704 0 0.0 0.0 0.00 0.00 0.00 1007.7
20260506191604 0 0.0 0.0 0.00 0.00 0.00 1007.7
20260506191504 0 0.0 0.0 0.00 0.00 0.00 1007.7
20260506191403 0 0.0 0.0 0.00 0.00 0.00 1007.7
20260506191303 0 0.0 0.0 0.00 0.00 0.00 1007.7
20260506191203 0 0.0 0.0 0.00 0.00 0.00 1007.7
20260506191104 0 0.0 0.0 0.00 0.00 0.00 1007.7
20260506191005 0 0.0 0.0 0.00 0.00 0.00 1007.7
20260506190907 0 0.0 0.0 0.00 0.00 0.00 1007.7
20260506190803 0 0.0 0.0 0.00 0.00 0.00 1007.7
20260506190703 0 0.0 0.0 0.00 0.00 0.00 1007.7
20260506190603 0 0.0 0.0 0.00 0.00 0.00 1007.8
20260506190503 0 0.0 0.0 0.00 0.00 0.00 1007.7
20260506190403 0 0.0 0.0 0.00 0.00 0.00 1007.8
20260506190303 0 0.0 0.0 0.00 0.00 0.00 1007.8
20260506190204 0 0.0 0.0 0.00 0.00 0.00 1007.9
20260506190004 0 0.0 0.0 0.00 0.00 0.00 1007.9
20260506185903 0 0.0 0.0 0.00 0.00 0.00 1008.0
20260506185804 0 0.0 0.0 0.00 0.00 0.00 1007.9
20260506185702 86 200 4.0 6.0 0.00 0.00 0.00 78 1008.0
20260506185603 86 200 4.0 6.0 0.00 0.00 0.00 78 1008.0
20260506185502 86 200 4.0 6.0 0.00 0.00 0.00 78 1008.0
20260506185403 86 200 4.0 6.0 0.00 0.00 0.00 78 1008.0
20260506185306 86 200 4.0 6.0 0.00 0.00 0.00 78 1007.9
20260506185203 86 200 4.0 6.0 0.00 0.00 0.00 78 1008.0
20260506185102 86 200 4.0 6.0 0.00 0.00 0.00 78 1008.0
20260506185004 86 200 4.0 6.0 0.00 0.00 0.00 78 1008.1
20260506184903 86 200 4.0 6.0 0.00 0.00 0.00 78 1008.1
20260506184804 86 200 4.0 6.0 0.00 0.00 0.00 78 1008.1
20260506184652 86 199 4.0 6.0 0.00 0.00 0.00 78 1008.1
20260506184552 85 199 4.0 6.0 0.00 0.00 0.00 79 1008.1
20260506184447 85 204 2.0 6.0 0.00 0.00 0.00 79 1008.1
20260506184342 85 206 1.0 4.0 0.00 0.00 0.00 80 1008.1
20260506184238 85 206 2.0 4.0 0.00 0.00 0.00 78 1008.1
20260506184134 85 206 2.0 4.0 0.00 0.00 0.00 83 1008.2
20260506184030 85 206 2.0 3.0 0.00 0.00 0.00 83 1008.2
20260506183932 0 0.0 0.0 0.00 0.00 0.00 1008.2
20260506183833 0 0.0 0.0 0.00 0.00 0.00 1008.2
20260506183732 0 0.0 0.0 0.00 0.00 0.00 1008.2
20260506183632 0 0.0 0.0 0.00 0.00 0.00 1008.3
20260506183533 0 0.0 0.0 0.00 0.00 0.00 1008.2
20260506183432 0 0.0 0.0 0.00 0.00 0.00 1008.3
20260506183332 0 0.0 0.0 0.00 0.00 0.00 1008.3
20260506183233 0 0.0 0.0 0.00 0.00 0.00 1008.3
20260506183133 0 0.0 0.0 0.00 0.00 0.00 1008.3
20260506183023 0 0.0 0.0 0.00 0.00 0.00 1008.3
20260506182922 0 0.0 0.0 0.00 0.00 0.00 1008.4
20260506182823 0 0.0 0.0 0.00 0.00 0.00 1008.4
20260506182721 0 0.0 0.0 0.00 0.00 0.00 1008.3
20260506182621 0 0.0 0.0 0.00 0.00 0.00 1008.4
20260506182521 0 0.0 0.0 0.00 0.00 0.00 1008.4
20260506182420 0 0.0 0.0 0.00 0.00 0.00 1008.4
20260506182322 0 0.0 0.0 0.00 0.00 0.00 1008.4
20260506182219 0 0.0 0.0 0.00 0.00 0.00 1008.4
20260506182119 0 0.0 0.0 0.00 0.00 0.00 1008.5
20260506182019 0 0.0 0.0 0.00 0.00 0.00 1008.5
20260506181919 0 0.0 0.0 0.00 0.00 0.00 1008.5
20260506181820 0 0.0 0.0 0.00 0.00 0.00 1008.5
20260506181718 0 0.0 0.0 0.00 0.00 0.00 1008.5
20260506181617 0 0.0 0.0 0.00 0.00 0.00 1008.5
20260506181517 0 0.0 0.0 0.00 0.00 0.00 1008.5
20260506181417 0 0.0 0.0 0.00 0.00 0.00 1008.6
20260506181317 0 0.0 0.0 0.00 0.00 0.00 1008.6
20260506181215 0 0.0 0.0 0.00 0.00 0.00 1008.7
20260506181116 0 0.0 0.0 0.00 0.00 0.00 1008.7
20260506181016 0 0.0 0.0 0.00 0.00 0.00 1008.7
20260506180915 0 0.0 0.0 0.00 0.00 0.00 1008.7
20260506180816 0 0.0 0.0 0.00 0.00 0.00 1008.8
20260506180714 0 0.0 0.0 0.00 0.00 0.00 1008.8
20260506180614 0 0.0 0.0 0.00 0.00 0.00 1008.8
20260506180514 0 0.0 0.0 0.00 0.00 0.00 1008.9
20260506180414 0 0.0 0.0 0.00 0.00 0.00 1008.9
20260506180313 0 0.0 0.0 0.00 0.00 0.00 1008.8
20260506180211 0 0.0 0.0 0.00 0.00 0.00 1008.8
20260506180113 0 0.0 0.0 0.00 0.00 0.00 1008.8
20260506180012 0 0.0 0.0 0.00 0.00 0.00 1008.9
20260506175913 0 0.0 0.0 0.00 0.00 0.00 1008.9
20260506175804 0 0.0 0.0 0.00 0.00 0.00 1008.9
20260506175703 0 0.0 0.0 0.00 0.00 0.00 1009.0
20260506175603 0 0.0 0.0 0.00 0.00 0.00 1009.0
20260506175503 0 0.0 0.0 0.00 0.00 0.00 1009.0
20260506175403 0 0.0 0.0 0.00 0.00 0.00 1009.0
20260506175306 0 0.0 0.0 0.00 0.00 0.00 1008.9
20260506175203 0 0.0 0.0 0.00 0.00 0.00 1009.0
20260506175103 82 213 2.0 2.0 0.00 0.00 0.00 83 1009.0
20260506175004 82 213 2.0 4.0 0.00 0.00 0.00 83 1009.0
20260506174903 82 213 2.0 5.0 0.00 0.00 0.00 83 1009.0
20260506174804 82 213 2.0 5.0 0.00 0.00 0.00 83 1009.0
20260506174703 82 213 2.0 5.0 0.00 0.00 0.00 83 1009.1
20260506174604 82 213 2.0 5.0 0.00 0.00 0.00 83 1009.1
20260506174504 82 213 2.0 5.0 0.00 0.00 0.00 83 1009.2
20260506174403 82 213 2.0 5.0 0.00 0.00 0.00 83 1009.2
20260506174303 82 213 2.0 5.0 0.00 0.00 0.00 83 1009.2
20260506174202 82 213 2.0 5.0 0.00 0.00 0.00 83 1009.2
20260506174103 82 213 3.0 5.0 0.00 0.00 0.00 83 1009.2
20260506174003 82 213 3.0 5.0 0.00 0.00 0.00 83 1009.2
20260506173905 82 212 4.0 5.0 0.00 0.00 0.00 83 1009.2
20260506173803 82 212 3.0 5.0 0.00 0.00 0.00 83 1009.2
20260506173704 83 212 3.0 5.0 0.00 0.00 0.00 83 1009.2
20260506173602 82 212 3.0 5.0 0.00 0.00 0.00 83 1009.2
20260506173504 82 212 4.0 5.0 0.00 0.00 0.00 84 1009.1
20260506173402 0 0.0 0.0 0.00 0.00 0.00 1009.3
20260506173303 0 0.0 0.0 0.00 0.00 0.00 1009.2
20260506173203 0 0.0 0.0 0.00 0.00 0.00 1009.3
20260506173103 0 0.0 0.0 0.00 0.00 0.00 1009.4
20260506173003 0 0.0 0.0 0.00 0.00 0.00 1009.4
20260506172903 0 0.0 0.0 0.00 0.00 0.00 1009.3
20260506172804 0 0.0 0.0 0.00 0.00 0.00 1009.3
20260506172703 0 0.0 0.0 0.00 0.00 0.00 1009.3
20260506172603 83 213 2.0 3.0 0.00 0.00 0.00 84 1009.4
20260506172504 83 213 2.0 3.0 0.00 0.00 0.00 84 1009.3
20260506172402 83 213 2.0 3.0 0.00 0.00 0.00 84 1009.3
20260506172306 83 213 2.0 3.0 0.00 0.00 0.00 84 1009.3
20260506172201 83 213 2.0 5.0 0.00 0.00 0.00 84 1009.4
20260506172100 83 213 2.0 5.0 0.00 0.00 0.00 84 1009.3
20260506172000 83 213 2.0 5.0 0.00 0.00 0.00 84 1009.3
20260506171900 83 213 2.0 5.0 0.00 0.00 0.00 84 1009.3
20260506171800 83 213 2.0 5.0 0.00 0.00 0.00 84 1009.4
20260506171659 83 213 2.0 5.0 0.00 0.00 0.00 84 1009.3
20260506171559 83 213 1.0 5.0 0.00 0.00 0.00 84 1009.3
20260506171500 83 213 1.0 5.0 0.00 0.00 0.00 84 1009.3
20260506171400 83 213 3.0 5.0 0.00 0.00 0.00 84 1009.3
20260506171300 83 213 3.0 5.0 0.00 0.00 0.00 84 1009.4
20260506171201 83 213 2.0 5.0 0.00 0.00 0.00 84 1009.3
20260506171059 82 214 2.0 4.0 0.00 0.00 0.00 84 1009.4
20260506170958 82 214 3.0 4.0 0.00 0.00 0.00 84 1009.4
20260506170900 82 213 4.0 4.0 0.00 0.00 0.00 85 1009.4
20260506170800 0 0.0 0.0 0.00 0.00 0.00 1009.4
20260506170700 0 0.0 0.0 0.00 0.00 0.00 1009.3
20260506170558 0 0.0 0.0 0.00 0.00 0.00 1009.4
20260506170459 0 0.0 0.0 0.00 0.00 0.00 1009.5
20260506170358 0 0.0 0.0 0.00 0.00 0.00 1009.5
20260506170259 0 0.0 0.0 0.00 0.00 0.00 1009.5
20260506170158 0 0.0 0.0 0.00 0.00 0.00 1009.4
20260506170057 0 0.0 0.0 0.00 0.00 0.00 1009.5
20260506165956 0 0.0 0.0 0.00 0.00 0.00 1009.6
20260506165858 0 0.0 0.0 0.00 0.00 0.00 1009.5
20260506165756 0 0.0 0.0 0.00 0.00 0.00 1009.6
20260506165657 0 0.0 0.0 0.00 0.00 0.00 1009.5
20260506165555 0 0.0 0.0 0.00 0.00 0.00 1009.5
20260506165454 0 0.0 0.0 0.00 0.00 0.00 1009.6
20260506165355 0 0.0 0.0 0.00 0.00 0.00 1009.6
20260506165254 0 0.0 0.0 0.00 0.00 0.00 1009.6
20260506165154 0 0.0 0.0 0.00 0.00 0.00 1009.6
20260506165032 0 0.0 0.0 0.00 0.00 0.00 1009.5
20260506164932 0 0.0 0.0 0.00 0.00 0.00 1009.5
20260506164832 0 0.0 0.0 0.00 0.00 0.00 1009.4
20260506164732 0 0.0 0.0 0.00 0.00 0.00 1009.4
20260506164632 0 0.0 0.0 0.00 0.00 0.00 1009.3
20260506164532 0 0.0 0.0 0.00 0.00 0.00 1009.4
20260506164432 0 0.0 0.0 0.00 0.00 0.00 1009.5
20260506164303 0 0.0 0.0 0.00 0.00 0.00 1009.5
20260506164205 0 0.0 0.0 0.00 0.00 0.00 1009.4
20260506164103 0 0.0 0.0 0.00 0.00 0.00 1009.4
20260506164003 0 0.0 0.0 0.00 0.00 0.00 1009.5
20260506163904 0 0.0 0.0 0.00 0.00 0.00 1009.5
20260506163803 0 0.0 0.0 0.00 0.00 0.00 1009.5
20260506163703 0 0.0 0.0 0.00 0.00 0.00 1009.4
20260506163603 0 0.0 0.0 0.00 0.00 0.00 1009.5
20260506163505 81 207 4.0 7.0 0.00 0.00 0.00 86 1009.5
20260506163403 81 207 4.0 7.0 0.00 0.00 0.00 86 1009.4
20260506163303 81 207 4.0 7.0 0.00 0.00 0.00 86 1009.5
20260506163203 81 207 4.0 7.0 0.00 0.00 0.00 86 1009.4
20260506163103 81 207 4.0 7.0 0.00 0.00 0.00 86 1009.3
20260506163004 81 207 4.0 7.0 0.00 0.00 0.00 86 1009.4
20260506162904 81 207 4.0 7.0 0.00 0.00 0.00 86 1009.4
20260506162803 81 207 4.0 7.0 0.00 0.00 0.00 86 1009.4
20260506162703 81 207 4.0 7.0 0.00 0.00 0.00 86 1009.4
20260506162604 81 207 4.0 7.0 0.00 0.00 0.00 86 1009.3
20260506162505 80 204 4.0 6.0 0.00 0.00 0.00 86 1009.3
20260506162402 80 204 4.0 6.0 0.00 0.00 0.00 86 1009.2
20260506162306 80 203 2.0 4.0 0.00 0.00 0.00 86 1009.3
20260506162201 80 202 1.0 4.0 0.00 0.00 0.00 87 1009.2
20260506162102 80 202 2.0 4.0 0.00 0.00 0.00 86 1009.3
20260506162002 80 203 2.0 4.0 0.00 0.00 0.00 87 1009.2
20260506161903 80 203 2.0 3.0 0.00 0.00 0.00 87 1009.2
20260506161804 0 0.0 0.0 0.00 0.00 0.00 1009.3
20260506161703 0 0.0 0.0 0.00 0.00 0.00 1009.2
20260506161604 0 0.0 0.0 0.00 0.00 0.00 1009.1
20260506161503 0 0.0 0.0 0.00 0.00 0.00 1009.2
20260506161403 0 0.0 0.0 0.00 0.00 0.00 1009.2
20260506161303 0 0.0 0.0 0.00 0.00 0.00 1009.2
20260506161203 0 0.0 0.0 0.00 0.00 0.00 1009.2
20260506161104 0 0.0 0.0 0.00 0.00 0.00 1009.1
20260506161003 0 0.0 0.0 0.00 0.00 0.00 1009.2
20260506160903 0 0.0 0.0 0.00 0.00 0.00 1009.2
20260506160803 0 0.0 0.0 0.00 0.00 0.00 1009.2
20260506160704 0 0.0 0.0 0.00 0.00 0.00 1009.2
20260506160603 0 0.0 0.0 0.00 0.00 0.00 1009.3
20260506160505 0 0.0 0.0 0.00 0.00 0.00 1009.3
20260506160403 0 0.0 0.0 0.00 0.00 0.00 1009.3
20260506160303 0 0.0 0.0 0.00 0.00 0.00 1009.2
20260506160204 0 0.0 0.0 0.00 0.00 0.00 1009.2
20260506160103 0 0.0 0.0 0.00 0.00 0.00 1009.2
20260506160004 0 0.0 0.0 0.00 0.00 0.00 1009.2
20260506155903 0 0.0 0.0 0.00 0.00 0.00 1009.1
20260506155804 0 0.0 0.0 0.00 0.00 0.00 1009.1
20260506155703 0 0.0 0.0 0.00 0.00 0.00 1009.2
20260506155603 0 0.0 0.0 0.00 0.00 0.00 1009.1
20260506155504 0 0.0 0.0 0.00 0.00 0.00 1009.2
20260506155403 0 0.0 0.0 0.00 0.00 0.00 1009.1
20260506155305 0 0.0 0.0 0.00 0.00 0.00 1009.2
20260506155203 0 0.0 0.0 0.00 0.00 0.00 1009.1
20260506155104 0 0.0 0.0 0.00 0.00 0.00 1009.0
20260506155004 0 0.0 0.0 0.00 0.00 0.00 1009.1
20260506154903 0 0.0 0.0 0.00 0.00 0.00 1009.1
20260506154803 0 0.0 0.0 0.00 0.00 0.00 1009.1
20260506154703 0 0.0 0.0 0.00 0.00 0.00 1009.1
20260506154603 0 0.0 0.0 0.00 0.00 0.00 1009.0
20260506154504 0 0.0 0.0 0.00 0.00 0.00 1009.1
20260506154403 0 0.0 0.0 0.00 0.00 0.00 1009.0
20260506154303 0 0.0 0.0 0.00 0.00 0.00 1009.1
20260506154203 0 0.0 0.0 0.00 0.00 0.00 1009.1
20260506154103 0 0.0 0.0 0.00 0.00 0.00 1009.0
20260506154003 0 0.0 0.0 0.00 0.00 0.00 1009.0
20260506153904 0 0.0 0.0 0.00 0.00 0.00 1009.0
20260506153803 0 0.0 0.0 0.00 0.00 0.00 1009.1
20260506153703 0 0.0 0.0 0.00 0.00 0.00 1009.1
20260506153603 0 0.0 0.0 0.00 0.00 0.00 1009.1
20260506153504 0 0.0 0.0 0.00 0.00 0.00 1009.1
20260506153403 0 0.0 0.0 0.00 0.00 0.00 1009.1
20260506153303 0 0.0 0.0 0.00 0.00 0.00 1009.1
20260506153204 0 0.0 0.0 0.00 0.00 0.00 1009.0
20260506153103 0 0.0 0.0 0.00 0.00 0.00 1008.9
20260506153002 0 0.0 0.0 0.00 0.00 0.00 1008.9
20260506152903 0 0.0 0.0 0.00 0.00 0.00 1008.9
20260506152803 0 0.0 0.0 0.00 0.00 0.00 1008.8
20260506152703 0 0.0 0.0 0.00 0.00 0.00 1008.8
20260506152603 0 0.0 0.0 0.00 0.00 0.00 1008.8
20260506152504 0 0.0 0.0 0.00 0.00 0.00 1008.8
20260506152404 0 0.0 0.0 0.00 0.00 0.00 1008.8
20260506152232 0 0.0 0.0 0.00 0.00 0.00 1008.8
20260506152131 0 0.0 0.0 0.00 0.00 0.00 1008.8
20260506152032 0 0.0 0.0 0.00 0.00 0.00 1008.6
20260506151932 0 0.0 0.0 0.00 0.00 0.00 1008.7
20260506151833 0 0.0 0.0 0.00 0.00 0.00 1008.7
20260506151732 0 0.0 0.0 0.00 0.00 0.00 1008.7
20260506151633 0 0.0 0.0 0.00 0.00 0.00 1008.7
20260506151532 0 0.0 0.0 0.00 0.00 0.00 1008.6
20260506151432 80 206 3.0 4.0 0.00 0.00 0.00 86 1008.6
20260506151332 80 206 3.0 5.0 0.00 0.00 0.00 86 1008.6
20260506151232 80 206 3.0 5.0 0.00 0.00 0.00 86 1008.6
20260506151132 80 206 3.0 5.0 0.00 0.00 0.00 86 1008.7
20260506151032 80 206 3.0 6.0 0.00 0.00 0.00 86 1008.6
20260506150932 80 206 3.0 7.0 0.00 0.00 0.00 86 1008.7
20260506150833 80 206 3.0 7.0 0.00 0.00 0.00 86 1008.7
20260506150732 80 206 3.0 7.0 0.00 0.00 0.00 86 1008.7
20260506150633 80 206 3.0 7.0 0.00 0.00 0.00 86 1008.6
20260506150532 80 206 3.0 7.0 0.00 0.00 0.00 86 1008.6
20260506150428 80 206 3.0 7.0 0.00 0.00 0.00 86 1008.6
20260506150320 80 207 3.0 7.0 0.00 0.00 0.00 86 1008.6
20260506150219 80 207 4.0 7.0 0.00 0.00 0.00 86 1008.6
20260506150119 80 209 3.0 7.0 0.00 0.00 0.00 86 1008.6
20260506150018 80 209 1.0 3.0 0.00 0.00 0.00 87 1008.5
20260506145915 80 209 2.0 3.0 0.00 0.00 0.00 87 1008.5
20260506145817 80 209 0.0 0.0 0.00 0.00 0.00 87 1008.4
20260506145717 0 0.0 0.0 0.00 0.00 0.00 1008.5
20260506145617 0 0.0 0.0 0.00 0.00 0.00 1008.5
20260506145515 0 0.0 0.0 0.00 0.00 0.00 1008.4
20260506145416 0 0.0 0.0 0.00 0.00 0.00 1008.4
20260506145315 0 0.0 0.0 0.00 0.00 0.00 1008.5
20260506145216 0 0.0 0.0 0.00 0.00 0.00 1008.4
20260506145115 0 0.0 0.0 0.00 0.00 0.00 1008.4
20260506145013 0 0.0 0.0 0.00 0.00 0.00 1008.3
20260506144913 79 0 5.0 5.0 0.00 0.00 0.00 87 1008.4
20260506144813 79 0 5.0 7.0 0.00 0.00 0.00 87 1008.4
20260506144713 79 0 5.0 9.0 0.00 0.00 0.00 87 1008.3
20260506144613 79 0 5.0 9.0 0.00 0.00 0.00 87 1008.4
20260506144511 79 0 5.0 9.0 0.00 0.00 0.00 87 1008.3
20260506144412 79 0 5.0 9.0 0.00 0.00 0.00 87 1008.3
20260506144311 79 0 5.0 9.0 0.00 0.00 0.00 87 1008.3
20260506144212 79 0 5.0 9.0 0.00 0.00 0.00 87 1008.2
20260506144111 79 0 5.0 9.0 0.00 0.00 0.00 87 1008.2
20260506144012 79 0 5.0 9.0 0.00 0.00 0.00 87 1008.2
20260506143912 79 0 5.0 9.0 0.00 0.00 0.00 87 1008.1
20260506143812 79 0 4.0 9.0 0.00 0.00 0.00 87 1008.2
20260506143712 79 0 3.0 6.0 0.00 0.00 0.00 87 1008.2
20260506143612 79 0 3.0 6.0 0.00 0.00 0.00 88 1008.2
20260506143510 79 0 4.0 6.0 0.00 0.00 0.00 88 1008.2
20260506143411 79 0 3.0 6.0 0.00 0.00 0.00 88 1008.3
20260506143312 79 0 4.0 6.0 0.00 0.00 0.00 88 1008.2
20260506143211 79 0 4.0 6.0 0.00 0.00 0.00 88 1008.2
20260506143109 79 0 4.0 6.0 0.00 0.00 0.00 88 1008.2
20260506143009 79 0 4.0 6.0 0.00 0.00 0.00 88 1008.2
20260506142910 79 0 4.0 6.0 0.00 0.00 0.00 88 1008.2
20260506142809 79 0 4.0 6.0 0.00 0.00 0.00 88 1008.2
20260506142710 79 0 4.0 6.0 0.00 0.00 0.00 88 1008.1
20260506142609 79 0 4.0 6.0 0.00 0.00 0.00 88 1008.2
20260506142508 79 0 4.0 6.0 0.00 0.00 0.00 88 1008.1
20260506142410 79 0 3.0 6.0 0.00 0.00 0.00 88 1008.0
20260506142309 79 0 3.0 6.0 0.00 0.00 0.00 88 1008.0
20260506142208 79 0 2.0 6.0 0.00 0.00 0.00 88 1008.0
20260506142109 79 0 2.0 6.0 0.00 0.00 0.00 88 1008.1
20260506142009 79 0 2.0 7.0 0.00 0.00 0.00 88 1008.1
20260506141910 79 0 2.0 7.0 0.00 0.00 0.00 88 1008.0
20260506141810 79 0 1.0 7.0 0.00 0.00 0.00 89 1008.1
20260506141709 79 0 1.0 7.0 0.00 0.00 0.00 89 1008.1
20260506141610 79 0 1.0 7.0 0.00 0.00 0.00 89 1008.1
20260506141509 79 0 1.0 7.0 0.00 0.00 0.00 89 1008.2
20260506141411 79 0 2.0 7.0 0.00 0.00 0.00 89 1008.2
20260506141310 79 0 4.0 7.0 0.00 0.00 0.00 89 1008.2
20260506141210 79 0 4.0 7.0 0.00 0.00 0.00 89 1008.2
20260506141108 79 0 4.0 7.0 0.00 0.00 0.00 89 1008.2
20260506141010 79 0 2.0 6.0 0.00 0.00 0.00 89 1008.2
20260506140909 79 0 3.0 6.0 0.00 0.00 0.00 89 1008.2
20260506140810 0 0 6.0 6.0 0.00 0.00 0.00 1008.3
20260506140709 0 0.0 0.0 0.00 0.00 0.00 1008.3
20260506140610 0 0.0 0.0 0.00 0.00 0.00 1008.3
20260506140506 0 0.0 0.0 0.00 0.00 0.00 1008.4
20260506140406 0 0.0 0.0 0.00 0.00 0.00 1008.3
20260506140306 0 0.0 0.0 0.00 0.00 0.00 1008.4
20260506140205 0 0.0 0.0 0.00 0.00 0.00 1008.3
20260506140106 0 0.0 0.0 0.00 0.00 0.00 1008.3
20260506140005 0 0.0 0.0 0.00 0.00 0.00 1008.3
20260506135904 0 0.0 0.0 0.00 0.00 0.00 1008.2
20260506135803 0 0.0 0.0 0.00 0.00 0.00 1008.2
20260506135704 0 0.0 0.0 0.00 0.00 0.00 1008.3
20260506135604 0 0.0 0.0 0.00 0.00 0.00 1008.3
20260506135504 0 0.0 0.0 0.00 0.00 0.00 1008.3
20260506135404 78 0 0.0 0.0 0.00 0.00 0.00 91 1008.4
20260506135306 78 0 0.0 0.0 0.00 0.00 0.00 91 1008.4
20260506135203 78 0 0.0 0.0 0.00 0.00 0.00 91 1008.4
20260506135103 78 0 0.0 2.0 0.00 0.00 0.00 91 1008.4
20260506135001 78 0 0.0 3.0 0.00 0.00 0.00 91 1008.4
20260506134902 78 0 0.0 3.0 0.00 0.00 0.00 91 1008.3
20260506134801 78 0 0.0 6.0 0.00 0.00 0.00 91 1008.4
20260506134702 78 0 0.0 6.0 0.00 0.00 0.00 91 1008.4
20260506134602 78 0 0.0 6.0 0.00 0.00 0.00 91 1008.3
20260506134503 78 0 0.0 6.0 0.00 0.00 0.00 91 1008.3
20260506134401 78 0 0.0 6.0 0.00 0.00 0.00 91 1008.4
20260506134300 78 0 0.0 6.0 0.00 0.00 0.00 91 1008.4
20260506134202 78 0 1.0 6.0 0.00 0.00 0.00 91 1008.4
20260506134100 78 0 1.0 6.0 0.00 0.00 0.00 91 1008.4
20260506134000 78 0 3.0 6.0 0.00 0.00 0.00 91 1008.3
20260506133901 78 0 4.0 6.0 0.00 0.00 0.00 91 1008.3
20260506133801 78 0 2.0 5.0 0.00 0.00 0.00 92 1008.4
20260506133700 0 0 3.0 3.0 0.00 0.00 0.00 1008.4
20260506133601 0 0.0 0.0 0.00 0.00 0.00 1008.4
20260506133459 0 0.0 0.0 0.00 0.00 0.00 1008.4
20260506133400 78 0 2.0 3.0 0.00 0.00 0.00 92 1008.5
20260506133259 78 0 2.0 3.0 0.00 0.00 0.00 92 1008.4
20260506133200 78 0 2.0 3.0 0.00 0.00 0.00 92 1008.5
20260506133059 78 0 2.0 3.0 0.00 0.00 0.00 92 1008.5
20260506132959 78 0 2.0 3.0 0.00 0.00 0.00 92 1008.5
20260506132858 78 0 2.0 3.0 0.00 0.00 0.00 92 1008.5
20260506132757 78 0 2.0 3.0 0.00 0.00 0.00 92 1008.5
20260506132658 78 0 2.0 4.0 0.00 0.00 0.00 92 1008.5
20260506132558 78 0 2.0 4.0 0.00 0.00 0.00 92 1008.5
20260506132458 78 0 2.0 4.0 0.00 0.00 0.00 92 1008.5
20260506132357 77 0 2.0 4.0 0.00 0.00 0.00 92 1008.5
20260506132258 77 0 2.0 4.0 0.00 0.00 0.00 92 1008.5
20260506132158 77 0 2.0 4.0 0.00 0.00 0.00 92 1008.5
20260506132057 77 0 2.0 4.0 0.00 0.00 0.00 92 1008.5
20260506131958 77 0 2.0 4.0 0.00 0.00 0.00 92 1008.5
20260506131856 77 0 2.0 4.0 0.00 0.00 0.00 92 1008.4
20260506131756 77 0 3.0 4.0 0.00 0.00 0.00 92 1008.4
20260506131657 77 0 0.0 1.0 0.00 0.00 0.00 92 1008.4
20260506131557 77 0 0.0 2.0 0.00 0.00 0.00 92 1008.5
20260506131456 77 0 0.0 4.0 0.00 0.00 0.00 92 1008.5
20260506131356 77 0 0.0 4.0 0.00 0.00 0.00 92 1008.5
20260506131256 77 0 0.0 4.0 0.00 0.00 0.00 92 1008.4
20260506131156 77 0 0.0 4.0 0.00 0.00 0.00 92 1008.5
20260506131055 77 0 0.0 4.0 0.00 0.00 0.00 92 1008.5
20260506130956 77 0 0.0 4.0 0.00 0.00 0.00 92 1008.6
20260506130854 77 0 0.0 4.0 0.00 0.00 0.00 92 1008.5
20260506130755 77 0 1.0 4.0 0.00 0.00 0.00 92 1008.5
20260506130656 77 0 2.0 4.0 0.00 0.00 0.00 92 1008.5
20260506130555 77 0 2.0 4.0 0.00 0.00 0.00 92 1008.6
20260506130455 77 0 2.0 3.0 0.00 0.00 0.00 92 1008.6
20260506130354 77 0 2.0 3.0 0.00 0.00 0.00 92 1008.6
20260506130256 77 0 0.0 0.0 0.00 0.00 0.00 93 1008.6
20260506130156 0 0.0 0.0 0.00 0.00 0.00 1008.6
20260506130056 0 0.0 0.0 0.00 0.00 0.00 1008.5
20260506125954 0 0.0 0.0 0.00 0.00 0.00 1008.5